Wetterdaten: Freitag, 22.07.2022
Datum Zeit Temp. Aussen Temp. o. S. Temp +5cm Feuchte Auss Luftdruck Regen Sonnenschein Regendauer Solar Windben Empfang
22.07.2022 00:00 16,8 C 16,1 C 12,8 C 97 % 1021,4 hPa 0,0 l/m 0 min 0 min 0 W/m 9,7 km/h (2 Bft) 97,87 %
22.07.2022 00:02 16,8 C 16,1 C 12,8 C 97 % 1021,4 hPa 0,0 l/m 0 min 0 min 0 W/m 6,4 km/h (2 Bft) 96,97 %
22.07.2022 00:04 16,8 C 16,1 C 12,8 C 97 % 1021,4 hPa 0,0 l/m 0 min 0 min 0 W/m 3,2 km/h (1 Bft) 97,87 %
22.07.2022 00:08 16,8 C 16,1 C 12,8 C 97 % 1021,4 hPa 0,0 l/m 0 min 0 min 0 W/m 6,4 km/h (2 Bft) 98,00 %
22.07.2022 00:10 16,8 C 16,1 C 12,8 C 97 % 1021,5 hPa 0,0 l/m 0 min 0 min 0 W/m 0,0 km/h (0 Bft) 97,87 %
22.07.2022 00:12 16,8 C 16,1 C 12,8 C 97 % 1021,4 hPa 0,0 l/m 0 min 0 min 0 W/m 6,4 km/h (2 Bft) 93,62 %
22.07.2022 00:14 16,8 C 16,1 C 12,8 C 97 % 1021,5 hPa 0,0 l/m 0 min 0 min 0 W/m 3,2 km/h (1 Bft) 95,65 %
22.07.2022 00:16 16,8 C 16,1 C 12,8 C 97 % 1021,5 hPa 0,0 l/m 0 min 0 min 0 W/m 12,9 km/h (3 Bft) 90,24 %
22.07.2022 00:18 16,8 C 16,1 C 12,8 C 97 % 1021,5 hPa 0,0 l/m 0 min 0 min 0 W/m 3,2 km/h (1 Bft) 94,34 %
22.07.2022 00:20 16,8 C 16,1 C 12,8 C 97 % 1021,5 hPa 0,0 l/m 0 min 0 min 0 W/m 6,4 km/h (2 Bft) 95,74 %
22.07.2022 00:22 16,8 C 16,1 C 12,8 C 97 % 1021,6 hPa 0,0 l/m 0 min 0 min 0 W/m 6,4 km/h (2 Bft) 95,74 %
22.07.2022 00:24 16,8 C 16,1 C 12,8 C 97 % 1021,6 hPa 0,0 l/m 0 min 0 min 0 W/m 9,7 km/h (2 Bft) 95,74 %
22.07.2022 00:26 16,8 C 16,1 C 12,8 C 97 % 1021,6 hPa 0,0 l/m 0 min 0 min 0 W/m 9,7 km/h (2 Bft) 93,48 %
22.07.2022 00:28 16,8 C 16,1 C 12,8 C 97 % 1021,6 hPa 0,0 l/m 0 min 0 min 0 W/m 9,7 km/h (2 Bft) 95,74 %
22.07.2022 00:30 16,8 C 16,1 C 12,8 C 97 % 1021,7 hPa 0,0 l/m 0 min 0 min 0 W/m 6,4 km/h (2 Bft) 95,74 %
22.07.2022 00:32 16,8 C 16,1 C 12,8 C 97 % 1021,7 hPa 0,0 l/m 0 min 0 min 0 W/m 9,7 km/h (2 Bft) 95,83 %
22.07.2022 00:34 16,8 C 16,1 C 12,8 C 97 % 1021,7 hPa 0,0 l/m 0 min 0 min 0 W/m 6,4 km/h (2 Bft) 97,87 %
22.07.2022 00:36 16,8 C 16,1 C 12,8 C 97 % 1021,7 hPa 0,0 l/m 0 min 0 min 0 W/m 9,7 km/h (2 Bft) 97,87 %
22.07.2022 00:38 16,7 C 16,1 C 12,8 C 97 % 1021,7 hPa 0,0 l/m 0 min 0 min 0 W/m 6,4 km/h (2 Bft) 97,83 %
22.07.2022 00:40 16,7 C 16,1 C 12,8 C 97 % 1021,7 hPa 0,0 l/m 0 min 0 min 0 W/m 6,4 km/h (2 Bft) 97,87 %
22.07.2022 00:42 16,7 C 16,1 C 12,8 C 97 % 1021,7 hPa 0,0 l/m 0 min 0 min 0 W/m 9,7 km/h (2 Bft) 97,87 %
22.07.2022 00:44 16,7 C 16,1 C 13,3 C 97 % 1021,7 hPa 0,0 l/m 0 min 0 min 0 W/m 9,7 km/h (2 Bft) 100,00 %
22.07.2022 00:46 16,7 C 16,1 C 13,3 C 97 % 1021,7 hPa 0,0 l/m 0 min 0 min 0 W/m 12,9 km/h (3 Bft) 100,00 %
22.07.2022 00:48 16,6 C 16,1 C 13,3 C 97 % 1021,7 hPa 0,0 l/m 0 min 0 min 0 W/m 6,4 km/h (2 Bft) 100,00 %
22.07.2022 00:50 16,6 C 16,1 C 13,3 C 97 % 1021,6 hPa 0,0 l/m 0 min 0 min 0 W/m 6,4 km/h (2 Bft) 100,00 %
22.07.2022 00:52 16,6 C 16,1 C 13,3 C 97 % 1021,6 hPa 0,0 l/m 0 min 0 min 0 W/m 6,4 km/h (2 Bft) 100,00 %
22.07.2022 00:54 16,6 C 16,1 C 13,3 C 97 % 1021,7 hPa 0,0 l/m 0 min 0 min 0 W/m 3,2 km/h (1 Bft) 100,00 %
22.07.2022 00:56 16,6 C 16,1 C 13,3 C 97 % 1021,7 hPa 0,0 l/m 0 min 0 min 0 W/m 9,7 km/h (2 Bft) 100,00 %
22.07.2022 00:58 16,6 C 16,1 C 13,3 C 97 % 1021,6 hPa 0,0 l/m 0 min 0 min 0 W/m 6,4 km/h (2 Bft) 100,00 %
22.07.2022 01:00 16,6 C 16,1 C 13,3 C 97 % 1021,6 hPa 0,0 l/m 0 min 0 min 0 W/m 6,4 km/h (2 Bft) 100,00 %
22.07.2022 01:02 16,6 C 16,1 C 12,8 C 97 % 1021,7 hPa 0,0 l/m 0 min 0 min 0 W/m 9,7 km/h (2 Bft) 100,00 %
22.07.2022 01:04 16,6 C 16,1 C 13,3 C 97 % 1021,6 hPa 0,0 l/m 0 min 0 min 0 W/m 6,4 km/h (2 Bft) 100,00 %
22.07.2022 01:06 16,6 C 16,1 C 13,3 C 97 % 1021,6 hPa 0,0 l/m 0 min 0 min 0 W/m 16,1 km/h (3 Bft) 100,00 %
22.07.2022 01:08 16,5 C 16,1 C 13,3 C 97 % 1021,6 hPa 0,0 l/m 0 min 0 min 0 W/m 6,4 km/h (2 Bft) 100,00 %
22.07.2022 01:10 16,5 C 16,1 C 12,8 C 97 % 1021,6 hPa 0,0 l/m 0 min 0 min 0 W/m 16,1 km/h (3 Bft) 100,00 %
22.07.2022 01:12 16,5 C 16,1 C 12,8 C 97 % 1021,6 hPa 0,0 l/m 0 min 0 min 0 W/m 9,7 km/h (2 Bft) 100,00 %
22.07.2022 01:14 16,4 C 16,1 C 12,8 C 97 % 1021,6 hPa 0,0 l/m 0 min 0 min 0 W/m 12,9 km/h (3 Bft) 97,87 %
22.07.2022 01:16 16,5 C 16,1 C 12,8 C 97 % 1021,6 hPa 0,0 l/m 0 min 0 min 0 W/m 16,1 km/h (3 Bft) 100,00 %
22.07.2022 01:18 16,4 C 16,1 C 12,8 C 97 % 1021,6 hPa 0,0 l/m 0 min 0 min 0 W/m 9,7 km/h (2 Bft) 100,00 %
22.07.2022 01:20 16,4 C 16,1 C 12,8 C 97 % 1021,6 hPa 0,0 l/m 0 min 0 min 0 W/m 12,9 km/h (3 Bft) 97,87 %
22.07.2022 01:22 16,4 C 15,6 C 12,8 C 97 % 1021,6 hPa 0,0 l/m 0 min 0 min 0 W/m 12,9 km/h (3 Bft) 93,62 %
22.07.2022 01:24 16,4 C 15,6 C 12,8 C 97 % 1021,7 hPa 0,0 l/m 0 min 0 min 0 W/m 9,7 km/h (2 Bft) 95,65 %
22.07.2022 01:26 16,4 C 15,6 C 12,8 C 97 % 1021,7 hPa 0,0 l/m 0 min 0 min 0 W/m 9,7 km/h (2 Bft) 97,87 %
22.07.2022 01:28 16,4 C 15,6 C 12,8 C 97 % 1021,6 hPa 0,0 l/m 0 min 0 min 0 W/m 6,4 km/h (2 Bft) 97,87 %
22.07.2022 01:30 16,4 C 16,1 C 12,8 C 97 % 1021,6 hPa 0,0 l/m 0 min 0 min 0 W/m 6,4 km/h (2 Bft) 97,87 %
22.07.2022 01:32 16,4 C 15,6 C 12,8 C 97 % 1021,6 hPa 0,0 l/m 0 min 0 min 0 W/m 6,4 km/h (2 Bft) 97,92 %
22.07.2022 01:34 16,4 C 15,6 C 12,8 C 97 % 1021,5 hPa 0,0 l/m 0 min 0 min 0 W/m 6,4 km/h (2 Bft) 95,74 %
22.07.2022 01:36 16,4 C 15,6 C 12,8 C 97 % 1021,6 hPa 0,0 l/m 0 min 0 min 0 W/m 9,7 km/h (2 Bft) 95,74 %
22.07.2022 01:38 16,4 C 15,6 C 12,8 C 97 % 1021,7 hPa 0,0 l/m 0 min 0 min 0 W/m 9,7 km/h (2 Bft) 95,65 %
22.07.2022 01:40 16,3 C 16,1 C 12,8 C 96 % 1021,6 hPa 0,0 l/m 0 min 0 min 0 W/m 9,7 km/h (2 Bft) 97,87 %
22.07.2022 01:42 16,3 C 15,6 C 12,8 C 96 % 1021,6 hPa 0,0 l/m 0 min 0 min 0 W/m 3,2 km/h (1 Bft) 97,87 %
22.07.2022 01:44 16,3 C 15,6 C 12,8 C 96 % 1021,6 hPa 0,0 l/m 0 min 0 min 0 W/m 9,7 km/h (2 Bft) 97,87 %
22.07.2022 01:46 16,3 C 15,6 C 12,8 C 96 % 1021,6 hPa 0,0 l/m 0 min 0 min 0 W/m 3,2 km/h (1 Bft) 97,87 %
22.07.2022 01:48 16,3 C 15,6 C 12,8 C 96 % 1021,6 hPa 0,0 l/m 0 min 0 min 0 W/m 3,2 km/h (1 Bft) 97,83 %
22.07.2022 01:50 16,3 C 15,6 C 12,8 C 96 % 1021,6 hPa 0,0 l/m 0 min 0 min 0 W/m 6,4 km/h (2 Bft) 97,87 %
22.07.2022 01:52 16,3 C 15,6 C 12,8 C 96 % 1021,6 hPa 0,0 l/m 0 min 0 min 0 W/m 6,4 km/h (2 Bft) 97,87 %
22.07.2022 01:54 16,4 C 15,6 C 12,8 C 96 % 1021,6 hPa 0,0 l/m 0 min 0 min 0 W/m 3,2 km/h (1 Bft) 97,87 %
22.07.2022 01:56 16,4 C 15,6 C 12,8 C 96 % 1021,6 hPa 0,0 l/m 0 min 0 min 0 W/m 3,2 km/h (1 Bft) 95,74 %
22.07.2022 01:58 16,4 C 15,6 C 12,8 C 96 % 1021,6 hPa 0,0 l/m 0 min 0 min 0 W/m 6,4 km/h (2 Bft) 95,74 %
22.07.2022 02:00 16,4 C 15,6 C 12,8 C 96 % 1021,6 hPa 0,0 l/m 0 min 0 min 0 W/m 6,4 km/h (2 Bft) 97,83 %
22.07.2022 02:02 16,4 C 15,6 C 12,8 C 96 % 1021,6 hPa 0,0 l/m 0 min 0 min 0 W/m 6,4 km/h (2 Bft) 97,87 %
22.07.2022 02:04 16,4 C 15,6 C 12,8 C 96 % 1021,6 hPa 0,0 l/m 0 min 0 min 0 W/m 6,4 km/h (2 Bft) 97,87 %
22.07.2022 02:06 16,4 C 15,6 C 12,8 C 96 % 1021,6 hPa 0,0 l/m 0 min 0 min 0 W/m 6,4 km/h (2 Bft) 95,74 %
22.07.2022 02:08 16,4 C 15,6 C 12,8 C 96 % 1021,5 hPa 0,0 l/m 0 min 0 min 0 W/m 3,2 km/h (1 Bft) 95,74 %
22.07.2022 02:10 16,4 C 15,6 C 12,8 C 96 % 1021,6 hPa 0,0 l/m 0 min 0 min 0 W/m 3,2 km/h (1 Bft) 97,87 %
22.07.2022 02:12 16,4 C 15,6 C 12,8 C 96 % 1021,6 hPa 0,0 l/m 0 min 0 min 0 W/m 3,2 km/h (1 Bft) 97,83 %
22.07.2022 02:14 16,4 C 15,6 C 12,8 C 96 % 1021,6 hPa 0,0 l/m 0 min 0 min 0 W/m 6,4 km/h (2 Bft) 95,74 %
22.07.2022 02:16 16,4 C 15,6 C 12,8 C 96 % 1021,6 hPa 0,0 l/m 0 min 0 min 0 W/m 3,2 km/h (1 Bft) 95,74 %
22.07.2022 02:18 16,4 C 15,6 C 12,8 C 96 % 1021,6 hPa 0,0 l/m 0 min 0 min 0 W/m 3,2 km/h (1 Bft) 97,87 %
22.07.2022 02:20 16,4 C 15,6 C 12,8 C 96 % 1021,6 hPa 0,0 l/m 0 min 0 min 0 W/m 3,2 km/h (1 Bft) 95,74 %
22.07.2022 02:22 16,4 C 15,6 C 12,8 C 96 % 1021,6 hPa 0,0 l/m 0 min 0 min 0 W/m 9,7 km/h (2 Bft) 97,87 %
22.07.2022 02:24 16,4 C 15,6 C 12,8 C 96 % 1021,6 hPa 0,0 l/m 0 min 0 min 0 W/m 3,2 km/h (1 Bft) 97,83 %
22.07.2022 02:26 16,4 C 15,6 C 12,8 C 96 % 1021,6 hPa 0,0 l/m 0 min 0 min 0 W/m 3,2 km/h (1 Bft) 93,62 %
22.07.2022 02:28 16,4 C 15,6 C 12,8 C 96 % 1021,6 hPa 0,0 l/m 0 min 0 min 0 W/m 6,4 km/h (2 Bft) 97,87 %
22.07.2022 02:30 16,4 C 15,6 C 12,8 C 96 % 1021,6 hPa 0,0 l/m 0 min 0 min 0 W/m 3,2 km/h (1 Bft) 97,87 %
22.07.2022 02:32 16,4 C 15,6 C 12,8 C 96 % 1021,6 hPa 0,0 l/m 0 min 0 min 0 W/m 3,2 km/h (1 Bft) 97,92 %
22.07.2022 02:34 16,4 C 15,6 C 12,8 C 96 % 1021,6 hPa 0,0 l/m 0 min 0 min 0 W/m 3,2 km/h (1 Bft) 95,74 %
22.07.2022 02:36 16,4 C 15,6 C 12,8 C 96 % 1021,5 hPa 0,0 l/m 0 min 0 min 0 W/m 6,4 km/h (2 Bft) 100,00 %
22.07.2022 02:38 16,4 C 15,6 C 12,8 C 96 % 1021,6 hPa 0,0 l/m 0 min 0 min 0 W/m 12,9 km/h (3 Bft) 100,00 %
22.07.2022 02:40 16,3 C 15,6 C 12,8 C 96 % 1021,6 hPa 0,0 l/m 0 min 0 min 0 W/m 9,7 km/h (2 Bft) 100,00 %
22.07.2022 02:42 16,3 C 15,6 C 12,8 C 96 % 1021,5 hPa 0,0 l/m 0 min 0 min 0 W/m 6,4 km/h (2 Bft) 95,74 %
22.07.2022 02:44 16,3 C 15,6 C 12,8 C 96 % 1021,6 hPa 0,0 l/m 0 min 0 min 0 W/m 3,2 km/h (1 Bft) 97,87 %
22.07.2022 02:46 16,3 C 15,6 C 12,8 C 96 % 1021,6 hPa 0,0 l/m 0 min 0 min 0 W/m 3,2 km/h (1 Bft) 97,87 %
22.07.2022 02:48 16,3 C 15,6 C 12,8 C 96 % 1021,6 hPa 0,0 l/m 0 min 0 min 0 W/m 6,4 km/h (2 Bft) 97,83 %
22.07.2022 02:50 16,3 C 15,6 C 12,8 C 96 % 1021,6 hPa 0,0 l/m 0 min 0 min 0 W/m 9,7 km/h (2 Bft) 97,96 %
22.07.2022 02:52 16,3 C 15,6 C 12,8 C 96 % 1021,6 hPa 0,0 l/m 0 min 0 min 0 W/m 6,4 km/h (2 Bft) 97,87 %
22.07.2022 02:54 16,3 C 15,6 C 12,8 C 96 % 1021,6 hPa 0,0 l/m 0 min 0 min 0 W/m 6,4 km/h (2 Bft) 97,87 %
22.07.2022 02:56 16,3 C 15,6 C 12,8 C 96 % 1021,6 hPa 0,0 l/m 0 min 0 min 0 W/m 6,4 km/h (2 Bft) 95,74 %
22.07.2022 02:58 16,3 C 15,6 C 12,8 C 96 % 1021,5 hPa 0,0 l/m 0 min 0 min 0 W/m 6,4 km/h (2 Bft) 97,83 %
22.07.2022 03:00 16,3 C 15,6 C 12,8 C 96 % 1021,6 hPa 0,0 l/m 0 min 0 min 0 W/m 3,2 km/h (1 Bft) 97,87 %
22.07.2022 03:02 16,3 C 15,6 C 12,8 C 96 % 1021,6 hPa 0,0 l/m 0 min 0 min 0 W/m 6,4 km/h (2 Bft) 100,00 %
22.07.2022 03:04 16,3 C 15,6 C 12,8 C 96 % 1021,5 hPa 0,0 l/m 0 min 0 min 0 W/m 3,2 km/h (1 Bft) 97,87 %
22.07.2022 03:06 16,3 C 15,6 C 12,8 C 96 % 1021,5 hPa 0,0 l/m 0 min 0 min 0 W/m 6,4 km/h (2 Bft) 96,61 %
22.07.2022 03:08 16,3 C 15,6 C 12,8 C 96 % 1021,5 hPa 0,0 l/m 0 min 0 min 0 W/m 3,2 km/h (1 Bft) 97,14 %
22.07.2022 03:10 16,4 C 15,6 C 12,8 C 96 % 1021,5 hPa 0,0 l/m 0 min 0 min 0 W/m 6,4 km/h (2 Bft) 97,87 %
22.07.2022 03:12 16,4 C 15,6 C 12,8 C 96 % 1021,4 hPa 0,0 l/m 0 min 0 min 0 W/m 6,4 km/h (2 Bft) 97,87 %
22.07.2022 03:14 16,4 C 15,6 C 12,8 C 96 % 1021,4 hPa 0,0 l/m 0 min 0 min 0 W/m 6,4 km/h (2 Bft) 97,83 %
22.07.2022 03:16 16,4 C 15,6 C 12,8 C 96 % 1021,5 hPa 0,0 l/m 0 min 0 min 0 W/m 9,7 km/h (2 Bft) 97,87 %
22.07.2022 03:18 16,3 C 15,6 C 12,8 C 96 % 1021,5 hPa 0,0 l/m 0 min 0 min 0 W/m 9,7 km/h (2 Bft) 97,87 %
22.07.2022 03:20 16,3 C 15,6 C 12,8 C 96 % 1021,5 hPa 0,0 l/m 0 min 0 min 0 W/m 6,4 km/h (2 Bft) 95,74 %
22.07.2022 03:22 16,3 C 15,6 C 12,8 C 96 % 1021,5 hPa 0,0 l/m 0 min 0 min 0 W/m 3,2 km/h (1 Bft) 97,87 %
22.07.2022 03:24 16,3 C 15,6 C 12,8 C 96 % 1021,5 hPa 0,0 l/m 0 min 0 min 0 W/m 6,4 km/h (2 Bft) 97,83 %
22.07.2022 03:26 16,3 C 15,6 C 12,8 C 96 % 1021,5 hPa 0,0 l/m 0 min 0 min 0 W/m 6,4 km/h (2 Bft) 97,87 %
22.07.2022 03:28 16,3 C 15,6 C 12,8 C 96 % 1021,5 hPa 0,0 l/m 0 min 0 min 0 W/m 6,4 km/h (2 Bft) 97,87 %
22.07.2022 03:30 16,3 C 15,6 C 12,8 C 96 % 1021,5 hPa 0,0 l/m 0 min 0 min 0 W/m 16,1 km/h (3 Bft) 97,87 %
22.07.2022 03:32 16,3 C 15,6 C 12,8 C 96 % 1021,5 hPa 0,0 l/m 0 min 0 min 0 W/m 3,2 km/h (1 Bft) 97,87 %
22.07.2022 03:34 16,3 C 15,6 C 12,8 C 96 % 1021,5 hPa 0,0 l/m 0 min 0 min 0 W/m 9,7 km/h (2 Bft) 100,00 %
22.07.2022 03:36 16,3 C 15,6 C 12,8 C 96 % 1021,5 hPa 0,0 l/m 0 min 0 min 0 W/m 6,4 km/h (2 Bft) 98,28 %
22.07.2022 03:38 16,3 C 15,6 C 12,8 C 96 % 1021,5 hPa 0,0 l/m 0 min 0 min 0 W/m 3,2 km/h (1 Bft) 100,00 %
22.07.2022 03:40 16,3 C 15,6 C 12,8 C 96 % 1021,5 hPa 0,0 l/m 0 min 0 min 0 W/m 0,0 km/h (0 Bft) 100,00 %
22.07.2022 03:42 16,3 C 15,6 C 12,8 C 96 % 1021,4 hPa 0,0 l/m 0 min 0 min 0 W/m 0,0 km/h (0 Bft) 100,00 %
22.07.2022 03:44 16,3 C 15,6 C 12,8 C 96 % 1021,4 hPa 0,0 l/m 0 min 0 min 0 W/m 6,4 km/h (2 Bft) 100,00 %
22.07.2022 03:46 16,3 C 15,6 C 12,8 C 96 % 1021,4 hPa 0,0 l/m 0 min 0 min 0 W/m 9,7 km/h (2 Bft) 97,87 %
22.07.2022 03:48 16,3 C 15,6 C 12,8 C 96 % 1021,4 hPa 0,0 l/m 0 min 0 min 0 W/m 6,4 km/h (2 Bft) 98,08 %
22.07.2022 03:50 16,3 C 15,6 C 12,8 C 96 % 1021,4 hPa 0,0 l/m 0 min 0 min 0 W/m 3,2 km/h (1 Bft) 100,00 %
22.07.2022 03:52 16,3 C 15,6 C 12,8 C 96 % 1021,4 hPa 0,0 l/m 0 min 0 min 0 W/m 9,7 km/h (2 Bft) 100,00 %
22.07.2022 03:54 16,3 C 15,6 C 12,8 C 96 % 1021,4 hPa 0,0 l/m 0 min 0 min 0 W/m 6,4 km/h (2 Bft) 100,00 %
22.07.2022 03:56 16,2 C 15,6 C 12,2 C 96 % 1021,5 hPa 0,0 l/m 0 min 0 min 0 W/m 12,9 km/h (3 Bft) 97,87 %
22.07.2022 03:58 16,2 C 15,6 C 12,2 C 96 % 1021,4 hPa 0,0 l/m 0 min 0 min 0 W/m 16,1 km/h (3 Bft) 97,87 %
22.07.2022 04:00 16,2 C 15,6 C 12,2 C 96 % 1021,4 hPa 0,0 l/m 0 min 0 min 0 W/m 16,1 km/h (3 Bft) 97,83 %
22.07.2022 04:02 16,1 C 15,0 C 12,2 C 96 % 1021,4 hPa 0,0 l/m 0 min 0 min 0 W/m 9,7 km/h (2 Bft) 100,00 %
22.07.2022 04:04 16,1 C 15,6 C 12,2 C 96 % 1021,4 hPa 0,0 l/m 0 min 0 min 0 W/m 6,4 km/h (2 Bft) 95,74 %
22.07.2022 04:06 16,1 C 15,6 C 12,2 C 96 % 1021,4 hPa 0,0 l/m 0 min 0 min 0 W/m 6,4 km/h (2 Bft) 96,30 %
22.07.2022 04:08 16,1 C 15,6 C 12,2 C 96 % 1021,4 hPa 0,0 l/m 0 min 0 min 0 W/m 6,4 km/h (2 Bft) 100,00 %
22.07.2022 04:10 16,1 C 15,0 C 12,2 C 96 % 1021,4 hPa 0,0 l/m 0 min 0 min 0 W/m 6,4 km/h (2 Bft) 100,00 %
22.07.2022 04:12 16,0 C 15,6 C 12,2 C 96 % 1021,4 hPa 0,0 l/m 0 min 0 min 0 W/m 9,7 km/h (2 Bft) 100,00 %
22.07.2022 04:14 16,0 C 15,6 C 12,2 C 96 % 1021,4 hPa 0,0 l/m 0 min 0 min 0 W/m 6,4 km/h (2 Bft) 95,74 %
22.07.2022 04:16 16,0 C 15,6 C 12,2 C 96 % 1021,4 hPa 0,0 l/m 0 min 0 min 0 W/m 6,4 km/h (2 Bft) 95,74 %
22.07.2022 04:18 15,9 C 15,6 C 12,2 C 96 % 1021,3 hPa 0,0 l/m 0 min 0 min 0 W/m 3,2 km/h (1 Bft) 95,74 %
22.07.2022 04:20 15,9 C 15,6 C 12,2 C 96 % 1021,3 hPa 0,0 l/m 0 min 0 min 0 W/m 9,7 km/h (2 Bft) 95,74 %
22.07.2022 04:22 15,9 C 15,6 C 12,2 C 96 % 1021,4 hPa 0,0 l/m 0 min 0 min 0 W/m 12,9 km/h (3 Bft) 95,74 %
22.07.2022 04:24 15,9 C 15,6 C 12,2 C 96 % 1021,4 hPa 0,0 l/m 0 min 0 min 0 W/m 6,4 km/h (2 Bft) 95,65 %
22.07.2022 04:26 15,9 C 15,6 C 12,2 C 96 % 1021,3 hPa 0,0 l/m 0 min 0 min 0 W/m 6,4 km/h (2 Bft) 95,74 %
22.07.2022 04:28 15,9 C 15,0 C 12,2 C 96 % 1021,3 hPa 0,0 l/m 0 min 0 min 0 W/m 9,7 km/h (2 Bft) 95,74 %
22.07.2022 04:30 15,9 C 15,0 C 12,2 C 96 % 1021,3 hPa 0,0 l/m 0 min 0 min 0 W/m 6,4 km/h (2 Bft) 97,87 %
22.07.2022 04:32 15,8 C 15,0 C 12,2 C 96 % 1021,3 hPa 0,0 l/m 0 min 0 min 0 W/m 6,4 km/h (2 Bft) 95,74 %
22.07.2022 04:34 15,8 C 15,0 C 12,2 C 96 % 1021,3 hPa 0,0 l/m 0 min 0 min 0 W/m 3,2 km/h (1 Bft) 97,83 %
22.07.2022 04:36 15,8 C 15,6 C 12,2 C 96 % 1021,3 hPa 0,0 l/m 0 min 0 min 0 W/m 3,2 km/h (1 Bft) 95,74 %
22.07.2022 04:38 15,8 C 15,6 C 12,2 C 96 % 1021,3 hPa 0,0 l/m 0 min 0 min 0 W/m 3,2 km/h (1 Bft) 97,87 %
22.07.2022 04:40 15,9 C 15,6 C 12,2 C 96 % 1021,3 hPa 0,0 l/m 0 min 0 min 0 W/m 3,2 km/h (1 Bft) 97,87 %
22.07.2022 04:42 15,9 C 15,6 C 12,2 C 96 % 1021,3 hPa 0,0 l/m 0 min 0 min 0 W/m 0,0 km/h (0 Bft) 97,87 %
22.07.2022 04:44 15,9 C 15,6 C 12,2 C 96 % 1021,3 hPa 0,0 l/m 0 min 0 min 0 W/m 3,2 km/h (1 Bft) 97,87 %
22.07.2022 04:46 15,9 C 15,6 C 12,2 C 96 % 1021,4 hPa 0,0 l/m 0 min 0 min 0 W/m 3,2 km/h (1 Bft) 97,87 %
22.07.2022 04:48 15,9 C 15,6 C 12,2 C 96 % 1021,3 hPa 0,0 l/m 0 min 0 min 0 W/m 3,2 km/h (1 Bft) 97,83 %
22.07.2022 04:50 15,9 C 15,6 C 12,8 C 96 % 1021,3 hPa 0,0 l/m 0 min 0 min 0 W/m 6,4 km/h (2 Bft) 95,74 %
22.07.2022 04:52 15,9 C 15,6 C 12,8 C 96 % 1021,3 hPa 0,0 l/m 0 min 0 min 0 W/m 3,2 km/h (1 Bft) 97,87 %
22.07.2022 04:54 15,9 C 15,6 C 12,8 C 96 % 1021,3 hPa 0,0 l/m 0 min 0 min 0 W/m 3,2 km/h (1 Bft) 97,87 %
22.07.2022 04:56 15,9 C 15,6 C 12,8 C 96 % 1021,4 hPa 0,0 l/m 0 min 0 min 0 W/m 3,2 km/h (1 Bft) 97,87 %
22.07.2022 04:58 16,0 C 15,6 C 12,8 C 96 % 1021,4 hPa 0,0 l/m 0 min 0 min 0 W/m 3,2 km/h (1 Bft) 95,74 %
22.07.2022 05:00 16,0 C 15,6 C 12,8 C 96 % 1021,4 hPa 0,0 l/m 0 min 0 min 0 W/m 3,2 km/h (1 Bft) 97,83 %
22.07.2022 05:02 16,0 C 15,6 C 12,8 C 96 % 1021,4 hPa 0,0 l/m 0 min 0 min 0 W/m 6,4 km/h (2 Bft) 97,87 %
22.07.2022 05:04 15,9 C 15,6 C 12,2 C 96 % 1021,3 hPa 0,0 l/m 0 min 0 min 0 W/m 3,2 km/h (1 Bft) 95,74 %
22.07.2022 05:06 16,0 C 15,6 C 12,2 C 96 % 1021,4 hPa 0,0 l/m 0 min 0 min 0 W/m 6,4 km/h (2 Bft) 97,87 %
22.07.2022 05:08 15,9 C 15,6 C 12,2 C 96 % 1021,3 hPa 0,0 l/m 0 min 0 min 0 W/m 6,4 km/h (2 Bft) 97,87 %
22.07.2022 05:10 15,9 C 15,6 C 12,2 C 96 % 1021,4 hPa 0,0 l/m 0 min 0 min 0 W/m 3,2 km/h (1 Bft) 100,00 %
22.07.2022 05:12 16,0 C 15,6 C 12,2 C 96 % 1021,4 hPa 0,0 l/m 0 min 0 min 0 W/m 3,2 km/h (1 Bft) 97,96 %
22.07.2022 05:14 16,0 C 15,6 C 12,2 C 96 % 1021,4 hPa 0,0 l/m 0 min 0 min 0 W/m 0,0 km/h (0 Bft) 100,00 %
22.07.2022 05:16 16,0 C 15,0 C 12,2 C 96 % 1021,4 hPa 0,0 l/m 0 min 0 min 0 W/m 3,2 km/h (1 Bft) 97,87 %
22.07.2022 05:18 16,0 C 15,0 C 12,2 C 96 % 1021,5 hPa 0,0 l/m 0 min 0 min 0 W/m 3,2 km/h (1 Bft) 97,87 %
22.07.2022 05:20 16,0 C 15,0 C 12,2 C 96 % 1021,4 hPa 0,0 l/m 0 min 0 min 0 W/m 6,4 km/h (2 Bft) 97,87 %
22.07.2022 05:22 16,0 C 15,0 C 11,7 C 96 % 1021,4 hPa 0,0 l/m 0 min 0 min 0 W/m 9,7 km/h (2 Bft) 97,83 %
22.07.2022 05:24 16,0 C 15,0 C 11,7 C 96 % 1021,3 hPa 0,0 l/m 0 min 0 min 0 W/m 9,7 km/h (2 Bft) 100,00 %
22.07.2022 05:26 15,9 C 15,0 C 11,7 C 96 % 1021,4 hPa 0,0 l/m 0 min 0 min 0 W/m 6,4 km/h (2 Bft) 100,00 %
22.07.2022 05:28 15,9 C 15,0 C 11,7 C 96 % 1021,3 hPa 0,0 l/m 0 min 0 min 0 W/m 6,4 km/h (2 Bft) 100,00 %
22.07.2022 05:30 15,9 C 15,0 C 11,7 C 96 % 1021,3 hPa 0,0 l/m 0 min 0 min 0 W/m 9,7 km/h (2 Bft) 97,87 %
22.07.2022 05:32 15,9 C 15,0 C 11,7 C 96 % 1021,3 hPa 0,2 l/m 0 min 0 min 0 W/m 6,4 km/h (2 Bft) 97,37 %
22.07.2022 05:34 15,9 C 15,0 C 11,7 C 96 % 1021,3 hPa 0,0 l/m 0 min 0 min 0 W/m 6,4 km/h (2 Bft) 100,00 %
22.07.2022 05:36 15,9 C 15,0 C 11,7 C 96 % 1021,3 hPa 0,0 l/m 0 min 0 min 0 W/m 3,2 km/h (1 Bft) 98,28 %
22.07.2022 05:38 15,9 C 15,0 C 11,7 C 96 % 1021,3 hPa 0,0 l/m 0 min 0 min 0 W/m 3,2 km/h (1 Bft) 97,14 %
22.07.2022 05:40 15,9 C 15,0 C 11,7 C 96 % 1021,3 hPa 0,0 l/m 0 min 0 min 0 W/m 6,4 km/h (2 Bft) 97,87 %
22.07.2022 05:42 15,9 C 15,0 C 11,7 C 96 % 1021,3 hPa 0,0 l/m 0 min 0 min 0 W/m 3,2 km/h (1 Bft) 97,87 %
22.07.2022 05:44 15,9 C 15,0 C 11,7 C 96 % 1021,3 hPa 0,0 l/m 0 min 0 min 0 W/m 6,4 km/h (2 Bft) 95,74 %
22.07.2022 05:46 15,9 C 15,0 C 11,7 C 96 % 1021,3 hPa 0,0 l/m 0 min 0 min 0 W/m 3,2 km/h (1 Bft) 97,87 %
22.07.2022 05:48 15,9 C 15,0 C 11,7 C 96 % 1021,3 hPa 0,0 l/m 0 min 0 min 0 W/m 6,4 km/h (2 Bft) 97,83 %
22.07.2022 05:50 15,8 C 15,0 C 11,7 C 96 % 1021,3 hPa 0,0 l/m 0 min 0 min 0 W/m 3,2 km/h (1 Bft) 95,74 %
22.07.2022 05:52 15,8 C 15,0 C 11,7 C 96 % 1021,3 hPa 0,0 l/m 0 min 0 min 0 W/m 3,2 km/h (1 Bft) 91,49 %
22.07.2022 05:54 15,8 C 15,0 C 11,7 C 96 % 1021,3 hPa 0,0 l/m 0 min 0 min 0 W/m 0,0 km/h (0 Bft) 95,74 %
22.07.2022 05:56 15,8 C 15,0 C 11,7 C 96 % 1021,3 hPa 0,0 l/m 0 min 0 min 0 W/m 0,0 km/h (0 Bft) 95,74 %
22.07.2022 05:58 15,9 C 15,0 C 11,7 C 96 % 1021,2 hPa 0,0 l/m 0 min 0 min 0 W/m 0,0 km/h (0 Bft) 95,74 %
22.07.2022 06:00 15,9 C 15,0 C 11,7 C 97 % 1021,2 hPa 0,0 l/m 0 min 0 min 0 W/m 3,2 km/h (1 Bft) 93,48 %
22.07.2022 06:02 15,9 C 15,0 C 11,7 C 97 % 1021,3 hPa 0,0 l/m 0 min 0 min 0 W/m 6,4 km/h (2 Bft) 95,74 %
22.07.2022 06:04 15,8 C 15,0 C 11,7 C 97 % 1021,3 hPa 0,0 l/m 0 min 0 min 0 W/m 6,4 km/h (2 Bft) 95,74 %
22.07.2022 06:08 15,8 C 15,0 C 11,7 C 96 % 1021,2 hPa 0,0 l/m 0 min 0 min 2 W/m 0,0 km/h (0 Bft) 93,62 %
22.07.2022 06:10 15,8 C 15,0 C 11,7 C 96 % 1021,3 hPa 0,0 l/m 0 min 0 min 5 W/m 0,0 km/h (0 Bft) 95,74 %
22.07.2022 06:12 15,8 C 15,0 C 11,7 C 96 % 1021,3 hPa 0,0 l/m 0 min 0 min 5 W/m 3,2 km/h (1 Bft) 95,65 %
22.07.2022 06:14 15,8 C 15,0 C 11,7 C 96 % 1021,2 hPa 0,0 l/m 0 min 0 min 6 W/m 0,0 km/h (0 Bft) 95,74 %
22.07.2022 06:16 15,8 C 15,0 C 11,7 C 96 % 1021,2 hPa 0,0 l/m 0 min 0 min 7 W/m 3,2 km/h (1 Bft) 95,74 %
22.07.2022 06:18 15,8 C 15,0 C 11,7 C 96 % 1021,2 hPa 0,0 l/m 0 min 0 min 8 W/m 0,0 km/h (0 Bft) 95,74 %
22.07.2022 06:20 15,8 C 15,0 C 11,7 C 96 % 1021,2 hPa 0,0 l/m 0 min 0 min 10 W/m 0,0 km/h (0 Bft) 97,87 %
22.07.2022 06:22 15,8 C 15,0 C 11,7 C 97 % 1021,2 hPa 0,0 l/m 0 min 0 min 11 W/m 0,0 km/h (0 Bft) 95,74 %
22.07.2022 06:24 15,7 C 15,0 C 11,7 C 97 % 1021,2 hPa 0,0 l/m 0 min 0 min 11 W/m 0,0 km/h (0 Bft) 100,00 %
22.07.2022 06:26 15,7 C 15,0 C 12,2 C 97 % 1021,2 hPa 0,0 l/m 0 min 0 min 12 W/m 3,2 km/h (1 Bft) 100,00 %
22.07.2022 06:28 15,7 C 15,0 C 12,2 C 97 % 1021,1 hPa 0,0 l/m 0 min 0 min 13 W/m 0,0 km/h (0 Bft) 100,00 %
22.07.2022 06:30 15,7 C 15,0 C 12,2 C 97 % 1021,2 hPa 0,0 l/m 0 min 0 min 14 W/m 0,0 km/h (0 Bft) 100,00 %
22.07.2022 06:32 15,7 C 15,0 C 12,2 C 97 % 1021,2 hPa 0,0 l/m 0 min 0 min 14 W/m 0,0 km/h (0 Bft) 97,87 %
22.07.2022 06:34 15,7 C 15,0 C 12,2 C 97 % 1021,2 hPa 0,0 l/m 0 min 0 min 16 W/m 0,0 km/h (0 Bft) 97,87 %
22.07.2022 06:36 15,7 C 15,6 C 12,2 C 97 % 1021,2 hPa 0,0 l/m 0 min 0 min 17 W/m 0,0 km/h (0 Bft) 100,00 %
22.07.2022 06:38 15,7 C 15,6 C 12,2 C 97 % 1021,2 hPa 0,0 l/m 0 min 0 min 18 W/m 3,2 km/h (1 Bft) 100,00 %
22.07.2022 06:40 15,7 C 15,6 C 12,2 C 97 % 1021,2 hPa 0,0 l/m 0 min 0 min 19 W/m 0,0 km/h (0 Bft) 100,00 %
22.07.2022 06:42 15,7 C 15,6 C 12,2 C 97 % 1021,2 hPa 0,0 l/m 0 min 0 min 21 W/m 0,0 km/h (0 Bft) 97,87 %
22.07.2022 06:44 15,7 C 15,6 C 12,2 C 97 % 1021,3 hPa 0,0 l/m 0 min 0 min 21 W/m 3,2 km/h (1 Bft) 100,00 %
22.07.2022 06:46 15,7 C 15,6 C 12,2 C 97 % 1021,3 hPa 0,0 l/m 0 min 0 min 21 W/m 3,2 km/h (1 Bft) 100,00 %
22.07.2022 06:48 15,7 C 15,6 C 12,2 C 97 % 1021,3 hPa 0,0 l/m 0 min 0 min 21 W/m 3,2 km/h (1 Bft) 100,00 %
22.07.2022 06:50 15,7 C 15,6 C 12,2 C 97 % 1021,4 hPa 0,0 l/m 0 min 0 min 21 W/m 3,2 km/h (1 Bft) 100,00 %
22.07.2022 06:52 15,7 C 15,6 C 12,2 C 97 % 1021,4 hPa 0,0 l/m 0 min 0 min 21 W/m 0,0 km/h (0 Bft) 100,00 %
22.07.2022 06:54 15,7 C 15,6 C 12,2 C 97 % 1021,4 hPa 0,0 l/m 0 min 0 min 21 W/m 3,2 km/h (1 Bft) 100,00 %
22.07.2022 06:56 15,8 C 15,6 C 12,8 C 97 % 1021,4 hPa 0,0 l/m 0 min 0 min 24 W/m 6,4 km/h (2 Bft) 100,00 %
22.07.2022 06:58 15,8 C 15,6 C 12,8 C 97 % 1021,4 hPa 0,0 l/m 0 min 0 min 25 W/m 6,4 km/h (2 Bft) 100,00 %
22.07.2022 07:00 15,8 C 15,6 C 12,8 C 97 % 1021,4 hPa 0,0 l/m 0 min 0 min 26 W/m 3,2 km/h (1 Bft) 100,00 %
22.07.2022 07:02 15,8 C 15,6 C 12,8 C 97 % 1021,4 hPa 0,0 l/m 0 min 0 min 29 W/m 0,0 km/h (0 Bft) 100,00 %
22.07.2022 07:04 15,8 C 15,6 C 12,2 C 97 % 1021,5 hPa 0,0 l/m 0 min 0 min 31 W/m 3,2 km/h (1 Bft) 100,00 %
22.07.2022 07:06 15,8 C 15,6 C 12,2 C 97 % 1021,5 hPa 0,0 l/m 0 min 0 min 33 W/m 6,4 km/h (2 Bft) 100,00 %
22.07.2022 07:08 15,8 C 15,6 C 12,2 C 97 % 1021,5 hPa 0,0 l/m 0 min 0 min 35 W/m 6,4 km/h (2 Bft) 100,00 %
22.07.2022 07:10 15,8 C 15,6 C 12,2 C 97 % 1021,5 hPa 0,0 l/m 0 min 0 min 38 W/m 9,7 km/h (2 Bft) 100,00 %
22.07.2022 07:12 15,7 C 15,6 C 12,2 C 96 % 1021,5 hPa 0,0 l/m 0 min 0 min 40 W/m 3,2 km/h (1 Bft) 97,83 %
22.07.2022 07:14 15,7 C 15,6 C 12,2 C 96 % 1021,4 hPa 0,0 l/m 0 min 0 min 41 W/m 3,2 km/h (1 Bft) 97,87 %
22.07.2022 07:16 15,7 C 15,6 C 12,2 C 96 % 1021,4 hPa 0,0 l/m 0 min 0 min 45 W/m 0,0 km/h (0 Bft) 97,87 %
22.07.2022 07:18 15,7 C 15,6 C 12,8 C 96 % 1021,3 hPa 0,0 l/m 0 min 0 min 48 W/m 3,2 km/h (1 Bft) 97,87 %
22.07.2022 07:20 15,7 C 15,6 C 12,8 C 96 % 1021,4 hPa 0,0 l/m 0 min 0 min 48 W/m 3,2 km/h (1 Bft) 95,74 %
22.07.2022 07:22 15,8 C 15,6 C 12,8 C 96 % 1021,4 hPa 0,0 l/m 0 min 0 min 47 W/m 6,4 km/h (2 Bft) 97,87 %
22.07.2022 07:24 15,8 C 15,6 C 12,8 C 96 % 1021,3 hPa 0,0 l/m 0 min 0 min 48 W/m 3,2 km/h (1 Bft) 95,65 %
22.07.2022 07:26 15,8 C 15,6 C 12,2 C 96 % 1021,3 hPa 0,0 l/m 0 min 0 min 50 W/m 3,2 km/h (1 Bft) 97,87 %
22.07.2022 07:28 15,8 C 15,6 C 12,8 C 96 % 1021,3 hPa 0,0 l/m 0 min 0 min 54 W/m 3,2 km/h (1 Bft) 93,62 %
22.07.2022 07:30 15,8 C 15,6 C 12,8 C 96 % 1021,3 hPa 0,0 l/m 0 min 0 min 56 W/m 3,2 km/h (1 Bft) 95,74 %
22.07.2022 07:32 15,8 C 15,6 C 12,8 C 96 % 1021,3 hPa 0,0 l/m 0 min 0 min 57 W/m 6,4 km/h (2 Bft) 97,87 %
22.07.2022 07:34 15,8 C 15,6 C 12,8 C 96 % 1021,2 hPa 0,0 l/m 0 min 0 min 60 W/m 3,2 km/h (1 Bft) 97,87 %
22.07.2022 07:36 15,8 C 15,6 C 12,8 C 96 % 1021,2 hPa 0,0 l/m 0 min 0 min 64 W/m 0,0 km/h (0 Bft) 97,83 %
22.07.2022 07:38 15,8 C 15,6 C 12,8 C 96 % 1021,2 hPa 0,0 l/m 0 min 0 min 65 W/m 3,2 km/h (1 Bft) 97,87 %
22.07.2022 07:40 15,8 C 15,6 C 12,8 C 96 % 1021,2 hPa 0,0 l/m 0 min 0 min 65 W/m 3,2 km/h (1 Bft) 93,62 %
22.07.2022 07:42 15,8 C 15,6 C 12,8 C 96 % 1021,2 hPa 0,0 l/m 0 min 0 min 66 W/m 6,4 km/h (2 Bft) 95,74 %
22.07.2022 07:44 15,8 C 15,6 C 12,8 C 96 % 1021,2 hPa 0,0 l/m 0 min 0 min 69 W/m 0,0 km/h (0 Bft) 95,74 %
22.07.2022 07:46 15,8 C 15,6 C 12,8 C 96 % 1021,2 hPa 0,0 l/m 0 min 0 min 73 W/m 3,2 km/h (1 Bft) 93,62 %
22.07.2022 07:48 15,9 C 15,6 C 12,8 C 96 % 1021,2 hPa 0,0 l/m 0 min 0 min 76 W/m 3,2 km/h (1 Bft) 95,65 %
22.07.2022 07:50 15,9 C 16,1 C 12,8 C 96 % 1021,2 hPa 0,0 l/m 0 min 0 min 76 W/m 3,2 km/h (1 Bft) 95,74 %
22.07.2022 07:52 15,9 C 15,6 C 12,8 C 96 % 1021,2 hPa 0,0 l/m 0 min 0 min 77 W/m 6,4 km/h (2 Bft) 95,74 %
22.07.2022 07:54 15,9 C 16,1 C 12,8 C 96 % 1021,2 hPa 0,0 l/m 0 min 0 min 80 W/m 6,4 km/h (2 Bft) 95,74 %
22.07.2022 07:56 15,9 C 16,1 C 12,8 C 96 % 1021,2 hPa 0,0 l/m 0 min 0 min 82 W/m 3,2 km/h (1 Bft) 95,74 %
22.07.2022 07:58 15,9 C 16,1 C 12,8 C 96 % 1021,2 hPa 0,0 l/m 0 min 0 min 84 W/m 6,4 km/h (2 Bft) 94,44 %
22.07.2022 08:00 15,9 C 16,1 C 12,8 C 96 % 1021,2 hPa 0,0 l/m 0 min 0 min 90 W/m 3,2 km/h (1 Bft) 93,62 %
22.07.2022 08:02 15,9 C 16,1 C 12,8 C 96 % 1021,2 hPa 0,0 l/m 0 min 0 min 90 W/m 0,0 km/h (0 Bft) 93,62 %
22.07.2022 08:04 16,0 C 16,1 C 12,8 C 96 % 1021,3 hPa 0,0 l/m 0 min 0 min 91 W/m 3,2 km/h (1 Bft) 97,87 %
22.07.2022 08:06 16,0 C 16,1 C 12,8 C 96 % 1021,2 hPa 0,0 l/m 0 min 0 min 93 W/m 3,2 km/h (1 Bft) 93,62 %
22.07.2022 08:08 16,1 C 16,1 C 13,3 C 96 % 1021,2 hPa 0,0 l/m 0 min 0 min 91 W/m 3,2 km/h (1 Bft) 97,87 %
22.07.2022 08:10 16,1 C 16,1 C 12,8 C 96 % 1021,3 hPa 0,0 l/m 0 min 0 min 93 W/m 3,2 km/h (1 Bft) 97,83 %
22.07.2022 08:12 16,1 C 16,1 C 12,8 C 96 % 1021,3 hPa 0,0 l/m 0 min 0 min 93 W/m 3,2 km/h (1 Bft) 97,87 %
22.07.2022 08:14 16,1 C 16,1 C 12,8 C 96 % 1021,2 hPa 0,0 l/m 0 min 0 min 94 W/m 3,2 km/h (1 Bft) 100,00 %
22.07.2022 08:16 16,1 C 16,1 C 13,3 C 96 % 1021,3 hPa 0,0 l/m 0 min 0 min 98 W/m 3,2 km/h (1 Bft) 97,87 %
22.07.2022 08:18 16,1 C 16,7 C 13,3 C 95 % 1021,3 hPa 0,0 l/m 0 min 0 min 100 W/m 6,4 km/h (2 Bft) 100,00 %
22.07.2022 08:20 16,1 C 16,7 C 13,3 C 95 % 1021,3 hPa 0,0 l/m 0 min 0 min 101 W/m 3,2 km/h (1 Bft) 100,00 %
22.07.2022 08:22 16,2 C 16,7 C 13,3 C 96 % 1021,3 hPa 0,0 l/m 0 min 0 min 102 W/m 3,2 km/h (1 Bft) 100,00 %
22.07.2022 08:24 16,2 C 16,7 C 13,3 C 96 % 1021,3 hPa 0,0 l/m 0 min 0 min 104 W/m 3,2 km/h (1 Bft) 100,00 %
22.07.2022 08:26 16,2 C 16,7 C 13,3 C 95 % 1021,3 hPa 0,0 l/m 0 min 0 min 104 W/m 0,0 km/h (0 Bft) 95,74 %
22.07.2022 08:28 16,2 C 16,7 C 13,3 C 95 % 1021,3 hPa 0,0 l/m 0 min 0 min 104 W/m 0,0 km/h (0 Bft) 95,74 %
22.07.2022 08:30 16,2 C 16,7 C 13,3 C 95 % 1021,3 hPa 0,0 l/m 0 min 0 min 105 W/m 0,0 km/h (0 Bft) 97,87 %
22.07.2022 08:32 16,2 C 16,7 C 13,3 C 95 % 1021,3 hPa 0,0 l/m 0 min 0 min 107 W/m 3,2 km/h (1 Bft) 97,83 %
22.07.2022 08:34 16,2 C 16,7 C 13,3 C 95 % 1021,3 hPa 0,0 l/m 0 min 0 min 107 W/m 6,4 km/h (2 Bft) 97,83 %
22.07.2022 08:36 16,3 C 16,7 C 13,3 C 95 % 1021,3 hPa 0,0 l/m 0 min 0 min 107 W/m 3,2 km/h (1 Bft) 97,87 %
22.07.2022 08:38 16,3 C 16,7 C 13,3 C 95 % 1021,3 hPa 0,0 l/m 0 min 0 min 108 W/m 6,4 km/h (2 Bft) 97,87 %
22.07.2022 08:40 16,3 C 16,7 C 13,3 C 95 % 1021,3 hPa 0,0 l/m 0 min 0 min 111 W/m 6,4 km/h (2 Bft) 97,87 %
22.07.2022 08:42 16,3 C 16,7 C 13,3 C 94 % 1021,3 hPa 0,0 l/m 0 min 0 min 113 W/m 0,0 km/h (0 Bft) 95,74 %
22.07.2022 08:44 16,3 C 16,7 C 13,3 C 94 % 1021,3 hPa 0,0 l/m 0 min 0 min 115 W/m 0,0 km/h (0 Bft) 97,87 %
22.07.2022 08:46 16,3 C 16,7 C 13,3 C 94 % 1021,3 hPa 0,0 l/m 0 min 0 min 117 W/m 0,0 km/h (0 Bft) 97,83 %
22.07.2022 08:48 16,3 C 16,7 C 13,3 C 94 % 1021,4 hPa 0,0 l/m 0 min 0 min 122 W/m 0,0 km/h (0 Bft) 97,87 %
22.07.2022 08:50 16,3 C 16,7 C 13,3 C 94 % 1021,3 hPa 0,0 l/m 0 min 0 min 125 W/m 0,0 km/h (0 Bft) 97,87 %
22.07.2022 08:52 16,4 C 16,7 C 13,3 C 94 % 1021,3 hPa 0,0 l/m 0 min 0 min 127 W/m 0,0 km/h (0 Bft) 97,87 %
22.07.2022 08:54 16,4 C 16,7 C 13,9 C 94 % 1021,3 hPa 0,0 l/m 0 min 0 min 132 W/m 0,0 km/h (0 Bft) 97,87 %
22.07.2022 08:56 16,5 C 17,2 C 13,9 C 94 % 1021,3 hPa 0,0 l/m 0 min 0 min 136 W/m 3,2 km/h (1 Bft) 97,87 %
22.07.2022 08:58 16,5 C 17,2 C 13,9 C 94 % 1021,3 hPa 0,0 l/m 0 min 0 min 141 W/m 6,4 km/h (2 Bft) 97,83 %
22.07.2022 09:00 16,6 C 16,7 C 13,9 C 94 % 1021,3 hPa 0,0 l/m 0 min 0 min 144 W/m 6,4 km/h (2 Bft) 97,87 %
22.07.2022 09:02 16,6 C 16,7 C 13,9 C 93 % 1021,3 hPa 0,0 l/m 0 min 0 min 148 W/m 3,2 km/h (1 Bft) 95,74 %
22.07.2022 09:04 16,7 C 17,2 C 13,9 C 93 % 1021,3 hPa 0,0 l/m 0 min 0 min 148 W/m 9,7 km/h (2 Bft) 97,87 %
22.07.2022 09:06 16,7 C 17,2 C 13,3 C 93 % 1021,3 hPa 0,0 l/m 0 min 0 min 148 W/m 3,2 km/h (1 Bft) 97,87 %
22.07.2022 09:08 16,7 C 16,7 C 13,3 C 93 % 1021,3 hPa 0,0 l/m 0 min 0 min 148 W/m 3,2 km/h (1 Bft) 97,87 %
22.07.2022 09:10 16,8 C 16,7 C 13,9 C 93 % 1021,3 hPa 0,0 l/m 0 min 0 min 145 W/m 6,4 km/h (2 Bft) 97,83 %
22.07.2022 09:12 16,8 C 17,2 C 13,9 C 93 % 1021,3 hPa 0,0 l/m 0 min 0 min 140 W/m 6,4 km/h (2 Bft) 97,87 %
22.07.2022 09:14 16,8 C 17,2 C 13,9 C 92 % 1021,3 hPa 0,0 l/m 0 min 0 min 136 W/m 3,2 km/h (1 Bft) 97,87 %
22.07.2022 09:16 16,8 C 17,2 C 13,9 C 92 % 1021,2 hPa 0,0 l/m 0 min 0 min 132 W/m 6,4 km/h (2 Bft) 97,87 %
22.07.2022 09:18 16,9 C 17,2 C 13,9 C 92 % 1021,3 hPa 0,0 l/m 0 min 0 min 128 W/m 6,4 km/h (2 Bft) 97,87 %
22.07.2022 09:20 16,9 C 17,2 C 13,9 C 92 % 1021,3 hPa 0,0 l/m 0 min 0 min 128 W/m 6,4 km/h (2 Bft) 95,74 %
22.07.2022 09:22 16,9 C 17,2 C 13,9 C 92 % 1021,3 hPa 0,0 l/m 0 min 0 min 124 W/m 9,7 km/h (2 Bft) 100,00 %
22.07.2022 09:24 16,9 C 17,2 C 13,9 C 92 % 1021,2 hPa 0,0 l/m 0 min 0 min 119 W/m 3,2 km/h (1 Bft) 100,00 %
22.07.2022 09:26 17,0 C 17,2 C 13,9 C 92 % 1021,2 hPa 0,0 l/m 0 min 0 min 118 W/m 3,2 km/h (1 Bft) 100,00 %
22.07.2022 09:28 17,0 C 17,2 C 13,9 C 91 % 1021,1 hPa 0,0 l/m 0 min 0 min 113 W/m 12,9 km/h (3 Bft) 97,87 %
22.07.2022 09:30 17,0 C 16,7 C 13,3 C 91 % 1021,1 hPa 0,0 l/m 0 min 0 min 108 W/m 6,4 km/h (2 Bft) 100,00 %
22.07.2022 09:32 17,0 C 17,2 C 13,3 C 90 % 1021,1 hPa 0,0 l/m 0 min 0 min 104 W/m 9,7 km/h (2 Bft) 100,00 %
22.07.2022 09:34 17,0 C 17,2 C 13,3 C 90 % 1021,1 hPa 0,0 l/m 0 min 0 min 99 W/m 6,4 km/h (2 Bft) 100,00 %
22.07.2022 09:36 17,0 C 17,2 C 13,3 C 90 % 1021,2 hPa 0,0 l/m 0 min 0 min 98 W/m 3,2 km/h (1 Bft) 100,00 %
22.07.2022 09:38 17,1 C 17,2 C 13,3 C 90 % 1021,2 hPa 0,0 l/m 0 min 0 min 102 W/m 3,2 km/h (1 Bft) 100,00 %
22.07.2022 09:40 17,0 C 16,7 C 13,3 C 89 % 1021,2 hPa 0,0 l/m 0 min 0 min 107 W/m 6,4 km/h (2 Bft) 95,74 %
22.07.2022 09:42 17,1 C 17,2 C 13,3 C 89 % 1021,1 hPa 0,0 l/m 0 min 0 min 111 W/m 3,2 km/h (1 Bft) 95,74 %
22.07.2022 09:44 17,1 C 16,7 C 13,3 C 89 % 1021,1 hPa 0,0 l/m 0 min 0 min 111 W/m 3,2 km/h (1 Bft) 97,87 %
22.07.2022 09:46 17,1 C 17,2 C 13,3 C 89 % 1021,2 hPa 0,0 l/m 0 min 0 min 109 W/m 6,4 km/h (2 Bft) 100,00 %
22.07.2022 09:48 17,1 C 17,2 C 13,3 C 90 % 1021,2 hPa 0,0 l/m 0 min 0 min 107 W/m 0,0 km/h (0 Bft) 97,87 %
22.07.2022 09:50 17,1 C 17,2 C 13,3 C 90 % 1021,1 hPa 0,0 l/m 0 min 0 min 109 W/m 3,2 km/h (1 Bft) 95,74 %
22.07.2022 09:52 17,1 C 16,7 C 13,3 C 90 % 1021,1 hPa 0,0 l/m 0 min 0 min 109 W/m 3,2 km/h (1 Bft) 97,87 %
22.07.2022 09:54 17,2 C 17,2 C 13,3 C 90 % 1021,1 hPa 0,0 l/m 0 min 0 min 109 W/m 3,2 km/h (1 Bft) 95,74 %
22.07.2022 09:56 17,2 C 17,2 C 13,3 C 90 % 1021,1 hPa 0,0 l/m 0 min 0 min 109 W/m 3,2 km/h (1 Bft) 97,87 %
22.07.2022 09:58 17,2 C 17,2 C 13,3 C 90 % 1021,1 hPa 0,0 l/m 0 min 0 min 107 W/m 0,0 km/h (0 Bft) 97,83 %
22.07.2022 10:00 17,2 C 17,2 C 13,3 C 90 % 1021,1 hPa 0,0 l/m 0 min 0 min 104 W/m 0,0 km/h (0 Bft) 95,74 %
22.07.2022 10:02 17,3 C 17,2 C 13,9 C 90 % 1021,1 hPa 0,0 l/m 0 min 0 min 101 W/m 6,4 km/h (2 Bft) 89,36 %
22.07.2022 10:04 17,3 C 17,2 C 13,9 C 90 % 1021,1 hPa 0,0 l/m 0 min 0 min 101 W/m 3,2 km/h (1 Bft) 95,74 %
22.07.2022 10:06 17,3 C 17,2 C 13,9 C 90 % 1021,0 hPa 0,0 l/m 0 min 0 min 106 W/m 3,2 km/h (1 Bft) 95,74 %
22.07.2022 10:08 17,3 C 17,2 C 13,9 C 90 % 1021,0 hPa 0,0 l/m 0 min 0 min 106 W/m 3,2 km/h (1 Bft) 95,74 %
22.07.2022 10:10 17,3 C 17,2 C 13,9 C 90 % 1021,0 hPa 0,0 l/m 0 min 0 min 102 W/m 3,2 km/h (1 Bft) 95,65 %
22.07.2022 10:12 17,4 C 17,2 C 13,9 C 90 % 1021,0 hPa 0,0 l/m 0 min 0 min 98 W/m 3,2 km/h (1 Bft) 95,74 %
22.07.2022 10:14 17,4 C 17,2 C 13,9 C 90 % 1021,0 hPa 0,0 l/m 0 min 0 min 100 W/m 6,4 km/h (2 Bft) 100,00 %
22.07.2022 10:16 17,4 C 17,2 C 13,9 C 90 % 1021,0 hPa 0,0 l/m 0 min 0 min 110 W/m 6,4 km/h (2 Bft) 97,87 %
22.07.2022 10:18 17,3 C 17,2 C 13,9 C 90 % 1021,1 hPa 0,0 l/m 0 min 0 min 117 W/m 6,4 km/h (2 Bft) 97,87 %
22.07.2022 10:20 17,3 C 17,2 C 13,9 C 90 % 1021,1 hPa 0,0 l/m 0 min 0 min 124 W/m 6,4 km/h (2 Bft) 95,74 %
22.07.2022 10:22 17,3 C 17,2 C 13,9 C 89 % 1021,2 hPa 0,0 l/m 0 min 0 min 127 W/m 6,4 km/h (2 Bft) 95,65 %
22.07.2022 10:24 17,3 C 17,2 C 13,9 C 89 % 1021,1 hPa 0,0 l/m 0 min 0 min 136 W/m 6,4 km/h (2 Bft) 97,87 %
22.07.2022 10:26 17,3 C 17,2 C 13,9 C 89 % 1021,2 hPa 0,0 l/m 0 min 0 min 147 W/m 3,2 km/h (1 Bft) 97,87 %
22.07.2022 10:28 17,3 C 17,8 C 13,9 C 89 % 1021,2 hPa 0,0 l/m 0 min 0 min 151 W/m 3,2 km/h (1 Bft) 97,87 %
22.07.2022 10:30 17,3 C 17,8 C 13,9 C 89 % 1021,2 hPa 0,0 l/m 0 min 0 min 148 W/m 3,2 km/h (1 Bft) 97,87 %
22.07.2022 10:32 17,3 C 17,8 C 13,9 C 89 % 1021,2 hPa 0,0 l/m 0 min 0 min 142 W/m 3,2 km/h (1 Bft) 97,87 %
22.07.2022 10:34 17,3 C 17,8 C 13,9 C 88 % 1021,2 hPa 0,0 l/m 0 min 0 min 134 W/m 6,4 km/h (2 Bft) 97,83 %
22.07.2022 10:36 17,3 C 17,8 C 13,9 C 88 % 1021,2 hPa 0,0 l/m 0 min 0 min 129 W/m 0,0 km/h (0 Bft) 95,74 %
22.07.2022 10:38 17,3 C 17,8 C 13,9 C 88 % 1021,2 hPa 0,0 l/m 0 min 0 min 129 W/m 6,4 km/h (2 Bft) 95,74 %
22.07.2022 10:40 17,3 C 17,8 C 13,9 C 88 % 1021,2 hPa 0,0 l/m 0 min 0 min 136 W/m 3,2 km/h (1 Bft) 97,87 %
22.07.2022 10:42 17,4 C 17,8 C 13,9 C 88 % 1021,2 hPa 0,0 l/m 0 min 0 min 141 W/m 3,2 km/h (1 Bft) 100,00 %
22.07.2022 10:44 17,4 C 17,8 C 13,9 C 88 % 1021,2 hPa 0,0 l/m 0 min 0 min 144 W/m 6,4 km/h (2 Bft) 100,00 %
22.07.2022 10:46 17,4 C 17,8 C 13,9 C 88 % 1021,2 hPa 0,0 l/m 0 min 0 min 146 W/m 6,4 km/h (2 Bft) 100,00 %
22.07.2022 10:48 17,4 C 17,2 C 13,9 C 88 % 1021,2 hPa 0,0 l/m 0 min 0 min 149 W/m 6,4 km/h (2 Bft) 97,87 %
22.07.2022 10:50 17,5 C 17,2 C 13,9 C 88 % 1021,2 hPa 0,0 l/m 0 min 0 min 153 W/m 6,4 km/h (2 Bft) 100,00 %
22.07.2022 10:52 17,5 C 17,2 C 13,9 C 87 % 1021,2 hPa 0,0 l/m 0 min 0 min 160 W/m 6,4 km/h (2 Bft) 100,00 %
22.07.2022 10:54 17,5 C 17,8 C 13,9 C 87 % 1021,2 hPa 0,0 l/m 0 min 0 min 157 W/m 3,2 km/h (1 Bft) 100,00 %
22.07.2022 10:56 17,5 C 17,8 C 13,9 C 87 % 1021,2 hPa 0,0 l/m 0 min 0 min 151 W/m 3,2 km/h (1 Bft) 100,00 %
22.07.2022 10:58 17,5 C 17,8 C 13,9 C 87 % 1021,2 hPa 0,0 l/m 0 min 0 min 143 W/m 3,2 km/h (1 Bft) 100,00 %
22.07.2022 11:00 17,5 C 17,8 C 13,9 C 86 % 1021,3 hPa 0,0 l/m 0 min 0 min 142 W/m 6,4 km/h (2 Bft) 100,00 %
22.07.2022 11:02 17,5 C 17,8 C 13,9 C 86 % 1021,3 hPa 0,0 l/m 0 min 0 min 148 W/m 6,4 km/h (2 Bft) 100,00 %
22.07.2022 11:04 17,5 C 17,8 C 13,9 C 86 % 1021,2 hPa 0,0 l/m 0 min 0 min 157 W/m 6,4 km/h (2 Bft) 100,00 %
22.07.2022 11:06 17,5 C 17,8 C 13,9 C 86 % 1021,3 hPa 0,0 l/m 0 min 0 min 170 W/m 3,2 km/h (1 Bft) 97,87 %
22.07.2022 11:08 17,6 C 17,8 C 13,9 C 86 % 1021,3 hPa 0,0 l/m 0 min 0 min 178 W/m 6,4 km/h (2 Bft) 100,00 %
22.07.2022 11:10 17,6 C 17,8 C 14,4 C 86 % 1021,3 hPa 0,0 l/m 0 min 0 min 181 W/m 3,2 km/h (1 Bft) 100,00 %
22.07.2022 11:12 17,6 C 17,8 C 14,4 C 86 % 1021,2 hPa 0,0 l/m 0 min 0 min 186 W/m 3,2 km/h (1 Bft) 100,00 %
22.07.2022 11:14 17,6 C 17,8 C 14,4 C 85 % 1021,2 hPa 0,0 l/m 0 min 0 min 195 W/m 3,2 km/h (1 Bft) 100,00 %
22.07.2022 11:16 17,6 C 17,8 C 14,4 C 86 % 1021,2 hPa 0,0 l/m 0 min 0 min 194 W/m 6,4 km/h (2 Bft) 97,87 %
22.07.2022 11:18 17,7 C 17,8 C 14,4 C 85 % 1021,2 hPa 0,0 l/m 0 min 0 min 189 W/m 3,2 km/h (1 Bft) 100,00 %
22.07.2022 11:20 17,7 C 18,3 C 14,4 C 85 % 1021,1 hPa 0,0 l/m 0 min 0 min 194 W/m 3,2 km/h (1 Bft) 97,83 %
22.07.2022 11:22 17,7 C 18,3 C 14,4 C 85 % 1021,1 hPa 0,0 l/m 0 min 0 min 208 W/m 3,2 km/h (1 Bft) 100,00 %
22.07.2022 11:24 17,8 C 18,3 C 14,4 C 85 % 1021,1 hPa 0,0 l/m 0 min 0 min 211 W/m 0,0 km/h (0 Bft) 100,00 %
22.07.2022 11:26 17,8 C 18,3 C 14,4 C 85 % 1021,1 hPa 0,0 l/m 0 min 0 min 202 W/m 6,4 km/h (2 Bft) 100,00 %
22.07.2022 11:28 17,8 C 18,3 C 14,4 C 85 % 1021,1 hPa 0,0 l/m 0 min 0 min 202 W/m 3,2 km/h (1 Bft) 100,00 %
22.07.2022 11:30 17,8 C 18,3 C 14,4 C 85 % 1021,2 hPa 0,0 l/m 0 min 0 min 223 W/m 3,2 km/h (1 Bft) 95,74 %
22.07.2022 11:32 17,9 C 18,3 C 14,4 C 85 % 1021,1 hPa 0,0 l/m 0 min 0 min 247 W/m 3,2 km/h (1 Bft) 100,00 %
22.07.2022 11:34 17,9 C 18,3 C 14,4 C 85 % 1021,1 hPa 0,0 l/m 0 min 0 min 273 W/m 3,2 km/h (1 Bft) 95,65 %
22.07.2022 11:36 17,9 C 18,3 C 15,0 C 85 % 1021,2 hPa 0,0 l/m 0 min 0 min 290 W/m 6,4 km/h (2 Bft) 97,87 %
22.07.2022 11:38 18,1 C 18,9 C 15,0 C 85 % 1021,2 hPa 0,0 l/m 0 min 0 min 300 W/m 3,2 km/h (1 Bft) 97,87 %
22.07.2022 11:40 18,1 C 18,9 C 15,0 C 84 % 1021,2 hPa 0,0 l/m 0 min 0 min 328 W/m 3,2 km/h (1 Bft) 95,74 %
22.07.2022 11:42 18,1 C 18,9 C 15,0 C 84 % 1021,2 hPa 0,0 l/m 0 min 0 min 354 W/m 3,2 km/h (1 Bft) 97,87 %
22.07.2022 11:44 18,2 C 18,9 C 15,0 C 84 % 1021,2 hPa 0,0 l/m 0 min 0 min 351 W/m 6,4 km/h (2 Bft) 95,74 %
22.07.2022 11:46 18,2 C 18,9 C 15,6 C 84 % 1021,2 hPa 0,0 l/m 0 min 0 min 365 W/m 6,4 km/h (2 Bft) 95,65 %
22.07.2022 11:48 18,3 C 19,4 C 15,6 C 83 % 1021,2 hPa 0,0 l/m 2 min 0 min 389 W/m 3,2 km/h (1 Bft) 93,62 %
22.07.2022 11:50 18,3 C 19,4 C 15,6 C 83 % 1021,2 hPa 0,0 l/m 2 min 0 min 383 W/m 6,4 km/h (2 Bft) 95,74 %
22.07.2022 11:52 18,4 C 19,4 C 15,6 C 83 % 1021,2 hPa 0,0 l/m 0 min 0 min 368 W/m 0,0 km/h (0 Bft) 95,74 %
22.07.2022 11:54 18,4 C 19,4 C 15,6 C 82 % 1021,2 hPa 0,0 l/m 0 min 0 min 344 W/m 9,7 km/h (2 Bft) 95,74 %
22.07.2022 11:56 18,5 C 19,4 C 15,6 C 82 % 1021,1 hPa 0,0 l/m 0 min 0 min 371 W/m 9,7 km/h (2 Bft) 93,48 %
22.07.2022 11:58 18,6 C 20,0 C 15,6 C 82 % 1021,2 hPa 0,0 l/m 2 min 0 min 407 W/m 6,4 km/h (2 Bft) 95,74 %
22.07.2022 12:00 18,6 C 20,0 C 15,6 C 82 % 1021,1 hPa 0,0 l/m 2 min 0 min 412 W/m 6,4 km/h (2 Bft) 95,74 %
22.07.2022 12:02 18,7 C 20,6 C 16,1 C 82 % 1021,1 hPa 0,0 l/m 2 min 0 min 458 W/m 6,4 km/h (2 Bft) 95,74 %
22.07.2022 12:04 18,8 C 20,6 C 16,1 C 82 % 1021,1 hPa 0,0 l/m 2 min 0 min 492 W/m 3,2 km/h (1 Bft) 95,74 %
22.07.2022 12:08 18,9 C 21,1 C 16,7 C 81 % 1021,0 hPa 0,0 l/m 4 min 0 min 495 W/m 6,4 km/h (2 Bft) 95,79 %
22.07.2022 12:10 19,0 C 21,1 C 16,7 C 81 % 1021,0 hPa 0,0 l/m 2 min 0 min 477 W/m 3,2 km/h (1 Bft) 95,74 %
22.07.2022 12:12 19,1 C 21,1 C 16,7 C 81 % 1020,9 hPa 0,0 l/m 2 min 0 min 506 W/m 6,4 km/h (2 Bft) 95,74 %
22.07.2022 12:14 19,2 C 21,1 C 17,2 C 81 % 1020,9 hPa 0,0 l/m 2 min 0 min 506 W/m 6,4 km/h (2 Bft) 95,74 %
22.07.2022 12:16 19,4 C 21,7 C 17,2 C 81 % 1020,9 hPa 0,0 l/m 2 min 0 min 503 W/m 0,0 km/h (0 Bft) 93,62 %
22.07.2022 12:18 19,6 C 22,8 C 17,8 C 81 % 1020,9 hPa 0,0 l/m 2 min 0 min 711 W/m 9,7 km/h (2 Bft) 95,74 %
22.07.2022 12:20 19,7 C 22,8 C 17,8 C 80 % 1020,8 hPa 0,0 l/m 2 min 0 min 771 W/m 3,2 km/h (1 Bft) 97,83 %
22.07.2022 12:22 19,9 C 22,2 C 18,3 C 79 % 1020,8 hPa 0,0 l/m 2 min 0 min 518 W/m 3,2 km/h (1 Bft) 97,87 %
22.07.2022 12:24 20,1 C 22,8 C 19,4 C 80 % 1020,7 hPa 0,0 l/m 2 min 0 min 531 W/m 9,7 km/h (2 Bft) 95,74 %
22.07.2022 12:26 20,2 C 23,3 C 20,0 C 79 % 1020,7 hPa 0,0 l/m 2 min 0 min 794 W/m 6,4 km/h (2 Bft) 97,87 %
22.07.2022 12:28 20,3 C 23,3 C 20,6 C 78 % 1020,7 hPa 0,0 l/m 2 min 0 min 856 W/m 6,4 km/h (2 Bft) 97,87 %
22.07.2022 12:30 20,5 C 23,9 C 21,1 C 77 % 1020,6 hPa 0,0 l/m 2 min 0 min 828 W/m 6,4 km/h (2 Bft) 97,87 %
22.07.2022 12:32 20,6 C 23,3 C 21,1 C 77 % 1020,6 hPa 0,0 l/m 2 min 0 min 833 W/m 6,4 km/h (2 Bft) 93,48 %
22.07.2022 12:34 20,8 C 23,9 C 21,7 C 76 % 1020,6 hPa 0,0 l/m 2 min 0 min 846 W/m 6,4 km/h (2 Bft) 97,87 %
22.07.2022 12:36 20,9 C 24,4 C 21,7 C 76 % 1020,6 hPa 0,0 l/m 2 min 0 min 826 W/m 6,4 km/h (2 Bft) 95,74 %
22.07.2022 12:38 21,1 C 24,4 C 21,1 C 76 % 1020,6 hPa 0,0 l/m 2 min 0 min 796 W/m 9,7 km/h (2 Bft) 95,74 %
22.07.2022 12:40 21,3 C 24,4 C 21,7 C 75 % 1020,6 hPa 0,0 l/m 2 min 0 min 649 W/m 9,7 km/h (2 Bft) 93,62 %
22.07.2022 12:42 21,4 C 24,4 C 21,7 C 75 % 1020,6 hPa 0,0 l/m 2 min 0 min 722 W/m 12,9 km/h (3 Bft) 97,87 %
22.07.2022 12:44 21,5 C 23,9 C 21,1 C 74 % 1020,6 hPa 0,0 l/m 2 min 0 min 793 W/m 6,4 km/h (2 Bft) 95,65 %
22.07.2022 12:46 21,6 C 23,9 C 21,1 C 74 % 1020,6 hPa 0,0 l/m 2 min 0 min 621 W/m 6,4 km/h (2 Bft) 97,87 %
22.07.2022 12:48 21,6 C 23,9 C 20,6 C 72 % 1020,6 hPa 0,0 l/m 2 min 0 min 621 W/m 9,7 km/h (2 Bft) 97,87 %
22.07.2022 12:50 21,7 C 24,4 C 20,6 C 73 % 1020,6 hPa 0,0 l/m 2 min 0 min 782 W/m 6,4 km/h (2 Bft) 97,87 %
22.07.2022 12:52 21,7 C 24,4 C 20,6 C 73 % 1020,6 hPa 0,0 l/m 2 min 0 min 949 W/m 6,4 km/h (2 Bft) 97,87 %
22.07.2022 12:54 21,8 C 25,0 C 20,6 C 73 % 1020,7 hPa 0,0 l/m 2 min 0 min 949 W/m 6,4 km/h (2 Bft) 95,74 %
22.07.2022 12:56 21,9 C 23,9 C 20,0 C 73 % 1020,7 hPa 0,0 l/m 2 min 0 min 649 W/m 3,2 km/h (1 Bft) 97,83 %
22.07.2022 12:58 22,0 C 23,9 C 19,4 C 72 % 1020,6 hPa 0,0 l/m 2 min 0 min 415 W/m 3,2 km/h (1 Bft) 97,87 %
22.07.2022 13:00 22,0 C 23,9 C 19,4 C 72 % 1020,6 hPa 0,0 l/m 2 min 0 min 452 W/m 6,4 km/h (2 Bft) 97,87 %
22.07.2022 13:02 22,0 C 23,3 C 18,9 C 71 % 1020,7 hPa 0,0 l/m 2 min 0 min 456 W/m 6,4 km/h (2 Bft) 97,87 %
22.07.2022 13:04 22,0 C 22,8 C 18,9 C 71 % 1020,7 hPa 0,0 l/m 2 min 0 min 443 W/m 6,4 km/h (2 Bft) 97,87 %
22.07.2022 13:06 21,9 C 22,2 C 18,3 C 70 % 1020,6 hPa 0,0 l/m 2 min 0 min 417 W/m 12,9 km/h (3 Bft) 97,83 %
22.07.2022 13:08 21,8 C 22,2 C 18,3 C 70 % 1020,7 hPa 0,0 l/m 0 min 0 min 387 W/m 3,2 km/h (1 Bft) 97,87 %
22.07.2022 13:10 21,8 C 22,2 C 17,8 C 70 % 1020,6 hPa 0,0 l/m 0 min 0 min 374 W/m 6,4 km/h (2 Bft) 97,87 %
22.07.2022 13:12 21,8 C 22,2 C 17,8 C 71 % 1020,6 hPa 0,0 l/m 0 min 0 min 392 W/m 3,2 km/h (1 Bft) 95,74 %
22.07.2022 13:14 21,8 C 22,2 C 17,8 C 71 % 1020,6 hPa 0,0 l/m 0 min 0 min 391 W/m 3,2 km/h (1 Bft) 100,00 %
22.07.2022 13:16 21,8 C 22,8 C 17,8 C 72 % 1020,5 hPa 0,0 l/m 0 min 0 min 304 W/m 6,4 km/h (2 Bft) 100,00 %
22.07.2022 13:18 21,8 C 22,8 C 17,8 C 72 % 1020,5 hPa 0,0 l/m 0 min 0 min 257 W/m 6,4 km/h (2 Bft) 100,00 %
22.07.2022 13:20 21,7 C 22,2 C 17,8 C 72 % 1020,5 hPa 0,0 l/m 0 min 0 min 238 W/m 6,4 km/h (2 Bft) 97,83 %
22.07.2022 13:22 21,5 C 21,1 C 17,2 C 72 % 1020,5 hPa 0,0 l/m 0 min 0 min 237 W/m 9,7 km/h (2 Bft) 100,00 %
22.07.2022 13:24 21,4 C 21,1 C 17,2 C 72 % 1020,4 hPa 0,0 l/m 0 min 0 min 236 W/m 3,2 km/h (1 Bft) 100,00 %
22.07.2022 13:26 21,3 C 21,1 C 17,2 C 73 % 1020,4 hPa 0,0 l/m 0 min 0 min 231 W/m 9,7 km/h (2 Bft) 100,00 %
22.07.2022 13:28 21,1 C 21,1 C 17,2 C 74 % 1020,4 hPa 0,0 l/m 0 min 0 min 254 W/m 6,4 km/h (2 Bft) 100,00 %
22.07.2022 13:30 21,1 C 21,1 C 17,2 C 74 % 1020,4 hPa 0,0 l/m 0 min 0 min 269 W/m 6,4 km/h (2 Bft) 100,00 %
22.07.2022 13:32 21,0 C 20,6 C 16,7 C 74 % 1020,4 hPa 0,0 l/m 0 min 0 min 264 W/m 6,4 km/h (2 Bft) 95,65 %
22.07.2022 13:34 20,9 C 20,6 C 16,7 C 73 % 1020,5 hPa 0,0 l/m 0 min 0 min 269 W/m 3,2 km/h (1 Bft) 100,00 %
22.07.2022 13:36 20,9 C 20,6 C 16,7 C 74 % 1020,4 hPa 0,0 l/m 0 min 0 min 279 W/m 6,4 km/h (2 Bft) 100,00 %
22.07.2022 13:38 20,8 C 21,1 C 17,2 C 74 % 1020,4 hPa 0,0 l/m 0 min 0 min 309 W/m 12,9 km/h (3 Bft) 100,00 %
22.07.2022 13:40 20,9 C 21,7 C 17,2 C 74 % 1020,4 hPa 0,0 l/m 0 min 0 min 341 W/m 16,1 km/h (3 Bft) 97,87 %
22.07.2022 13:42 20,9 C 22,2 C 17,8 C 74 % 1020,4 hPa 0,0 l/m 0 min 0 min 364 W/m 12,9 km/h (3 Bft) 100,00 %
22.07.2022 13:44 21,0 C 22,8 C 18,3 C 74 % 1020,3 hPa 0,0 l/m 2 min 0 min 725 W/m 6,4 km/h (2 Bft) 100,00 %
22.07.2022 13:46 21,1 C 22,8 C 18,9 C 73 % 1020,3 hPa 0,0 l/m 2 min 0 min 751 W/m 12,9 km/h (3 Bft) 97,87 %
22.07.2022 13:48 21,3 C 23,3 C 20,0 C 73 % 1020,3 hPa 0,0 l/m 2 min 0 min 786 W/m 6,4 km/h (2 Bft) 97,87 %
22.07.2022 13:50 21,4 C 23,9 C 20,0 C 73 % 1020,3 hPa 0,0 l/m 2 min 0 min 713 W/m 3,2 km/h (1 Bft) 97,87 %
22.07.2022 13:52 21,6 C 23,3 C 19,4 C 73 % 1020,2 hPa 0,0 l/m 2 min 0 min 528 W/m 0,0 km/h (0 Bft) 95,74 %
22.07.2022 13:54 21,8 C 22,8 C 18,9 C 73 % 1020,1 hPa 0,0 l/m 0 min 0 min 291 W/m 0,0 km/h (0 Bft) 97,87 %
22.07.2022 13:56 21,8 C 22,8 C 18,3 C 72 % 1020,1 hPa 0,0 l/m 0 min 0 min 282 W/m 0,0 km/h (0 Bft) 97,83 %
22.07.2022 13:58 21,8 C 22,8 C 18,3 C 72 % 1020,1 hPa 0,0 l/m 0 min 0 min 290 W/m 0,0 km/h (0 Bft) 97,87 %
22.07.2022 14:00 21,9 C 22,8 C 18,3 C 72 % 1020,1 hPa 0,0 l/m 0 min 0 min 320 W/m 6,4 km/h (2 Bft) 97,87 %
22.07.2022 14:02 21,9 C 22,8 C 17,8 C 72 % 1020,2 hPa 0,0 l/m 0 min 0 min 354 W/m 6,4 km/h (2 Bft) 95,74 %
22.07.2022 14:04 21,8 C 22,2 C 17,8 C 71 % 1020,1 hPa 0,0 l/m 0 min 0 min 367 W/m 12,9 km/h (3 Bft) 95,74 %
22.07.2022 14:06 21,7 C 22,8 C 17,8 C 72 % 1020,2 hPa 0,0 l/m 2 min 0 min 415 W/m 9,7 km/h (2 Bft) 97,87 %
22.07.2022 14:08 21,7 C 22,2 C 17,8 C 70 % 1020,1 hPa 0,0 l/m 0 min 0 min 387 W/m 6,4 km/h (2 Bft) 97,83 %
22.07.2022 14:10 21,7 C 22,2 C 17,8 C 70 % 1020,2 hPa 0,0 l/m 0 min 0 min 351 W/m 6,4 km/h (2 Bft) 93,62 %
22.07.2022 14:12 21,7 C 22,2 C 17,8 C 70 % 1020,1 hPa 0,0 l/m 0 min 0 min 358 W/m 3,2 km/h (1 Bft) 97,87 %
22.07.2022 14:14 21,7 C 22,2 C 17,8 C 71 % 1020,0 hPa 0,0 l/m 0 min 0 min 399 W/m 9,7 km/h (2 Bft) 97,87 %
22.07.2022 14:16 21,7 C 22,8 C 17,8 C 71 % 1020,0 hPa 0,0 l/m 2 min 0 min 415 W/m 6,4 km/h (2 Bft) 95,74 %
22.07.2022 14:18 21,8 C 23,3 C 18,3 C 71 % 1020,0 hPa 0,0 l/m 2 min 0 min 560 W/m 6,4 km/h (2 Bft) 97,87 %
22.07.2022 14:20 21,9 C 23,9 C 18,3 C 71 % 1020,0 hPa 0,0 l/m 2 min 0 min 736 W/m 6,4 km/h (2 Bft) 97,83 %
22.07.2022 14:22 21,9 C 23,9 C 17,8 C 70 % 1019,9 hPa 0,0 l/m 2 min 0 min 614 W/m 6,4 km/h (2 Bft) 100,00 %
22.07.2022 14:24 22,1 C 23,3 C 17,8 C 70 % 1019,9 hPa 0,0 l/m 2 min 0 min 747 W/m 3,2 km/h (1 Bft) 100,00 %
22.07.2022 14:26 22,2 C 23,9 C 18,3 C 71 % 1020,0 hPa 0,0 l/m 2 min 0 min 841 W/m 9,7 km/h (2 Bft) 100,00 %
22.07.2022 14:28 22,3 C 25,0 C 18,3 C 72 % 1019,9 hPa 0,0 l/m 2 min 0 min 771 W/m 6,4 km/h (2 Bft) 100,00 %
22.07.2022 14:30 22,4 C 23,9 C 18,3 C 70 % 1019,8 hPa 0,0 l/m 2 min 0 min 500 W/m 6,4 km/h (2 Bft) 97,87 %
22.07.2022 14:32 22,4 C 23,9 C 18,3 C 70 % 1019,8 hPa 0,0 l/m 0 min 0 min 359 W/m 0,0 km/h (0 Bft) 100,00 %
22.07.2022 14:34 22,4 C 23,9 C 18,3 C 71 % 1019,8 hPa 0,0 l/m 0 min 0 min 328 W/m 0,0 km/h (0 Bft) 100,00 %
22.07.2022 14:36 22,4 C 23,3 C 18,3 C 71 % 1019,8 hPa 0,0 l/m 0 min 0 min 307 W/m 0,0 km/h (0 Bft) 100,00 %
22.07.2022 14:38 22,4 C 23,3 C 18,3 C 71 % 1019,8 hPa 0,0 l/m 0 min 0 min 350 W/m 0,0 km/h (0 Bft) 100,00 %
22.07.2022 14:40 22,4 C 23,3 C 18,3 C 71 % 1019,7 hPa 0,0 l/m 0 min 0 min 396 W/m 3,2 km/h (1 Bft) 100,00 %
22.07.2022 14:42 22,3 C 22,8 C 18,3 C 71 % 1019,8 hPa 0,0 l/m 2 min 0 min 417 W/m 6,4 km/h (2 Bft) 100,00 %
22.07.2022 14:44 22,3 C 23,3 C 18,3 C 71 % 1019,8 hPa 0,0 l/m 2 min 0 min 445 W/m 6,4 km/h (2 Bft) 97,83 %
22.07.2022 14:46 22,3 C 23,3 C 18,3 C 71 % 1019,8 hPa 0,0 l/m 2 min 0 min 466 W/m 6,4 km/h (2 Bft) 100,00 %
22.07.2022 14:48 22,3 C 24,4 C 18,3 C 71 % 1019,8 hPa 0,0 l/m 2 min 0 min 508 W/m 3,2 km/h (1 Bft) 100,00 %
22.07.2022 14:50 22,3 C 24,4 C 18,3 C 71 % 1019,7 hPa 0,0 l/m 2 min 0 min 699 W/m 6,4 km/h (2 Bft) 100,00 %
22.07.2022 14:52 22,4 C 25,0 C 18,3 C 71 % 1019,6 hPa 0,0 l/m 2 min 0 min 656 W/m 6,4 km/h (2 Bft) 100,00 %
22.07.2022 14:54 22,5 C 25,0 C 18,3 C 71 % 1019,7 hPa 0,0 l/m 2 min 0 min 635 W/m 6,4 km/h (2 Bft) 97,87 %
22.07.2022 14:56 22,6 C 25,0 C 18,3 C 70 % 1019,7 hPa 0,0 l/m 2 min 0 min 601 W/m 9,7 km/h (2 Bft) 100,00 %
22.07.2022 14:58 22,6 C 25,0 C 18,3 C 69 % 1019,6 hPa 0,0 l/m 2 min 0 min 611 W/m 12,9 km/h (3 Bft) 100,00 %
22.07.2022 15:00 22,6 C 25,0 C 18,3 C 69 % 1019,6 hPa 0,0 l/m 2 min 0 min 620 W/m 9,7 km/h (2 Bft) 100,00 %
22.07.2022 15:02 22,7 C 25,6 C 18,9 C 70 % 1019,5 hPa 0,0 l/m 2 min 0 min 665 W/m 6,4 km/h (2 Bft) 95,74 %
22.07.2022 15:04 22,7 C 25,0 C 18,9 C 69 % 1019,5 hPa 0,0 l/m 2 min 0 min 710 W/m 9,7 km/h (2 Bft) 93,62 %
22.07.2022 15:06 22,8 C 25,6 C 18,9 C 69 % 1019,5 hPa 0,0 l/m 2 min 0 min 699 W/m 9,7 km/h (2 Bft) 93,62 %
22.07.2022 15:08 22,9 C 26,1 C 18,9 C 68 % 1019,4 hPa 0,0 l/m 2 min 0 min 752 W/m 6,4 km/h (2 Bft) 95,65 %
22.07.2022 15:10 23,1 C 25,6 C 18,9 C 68 % 1019,5 hPa 0,0 l/m 2 min 0 min 777 W/m 3,2 km/h (1 Bft) 95,74 %
22.07.2022 15:12 23,2 C 25,6 C 18,9 C 68 % 1019,4 hPa 0,0 l/m 2 min 0 min 783 W/m 6,4 km/h (2 Bft) 95,74 %
22.07.2022 15:14 23,2 C 25,0 C 18,9 C 67 % 1019,4 hPa 0,0 l/m 2 min 0 min 796 W/m 6,4 km/h (2 Bft) 93,62 %
22.07.2022 15:16 23,3 C 25,6 C 18,9 C 67 % 1019,4 hPa 0,0 l/m 2 min 0 min 769 W/m 6,4 km/h (2 Bft) 95,74 %
22.07.2022 15:18 23,4 C 26,1 C 19,4 C 67 % 1019,4 hPa 0,0 l/m 2 min 0 min 761 W/m 3,2 km/h (1 Bft) 95,74 %
22.07.2022 15:20 23,6 C 26,1 C 19,4 C 67 % 1019,4 hPa 0,0 l/m 2 min 0 min 752 W/m 6,4 km/h (2 Bft) 95,65 %
22.07.2022 15:22 23,6 C 26,1 C 18,9 C 67 % 1019,4 hPa 0,0 l/m 2 min 0 min 504 W/m 6,4 km/h (2 Bft) 95,74 %
22.07.2022 15:24 23,7 C 26,1 C 18,9 C 66 % 1019,4 hPa 0,0 l/m 2 min 0 min 577 W/m 6,4 km/h (2 Bft) 93,62 %
22.07.2022 15:26 23,7 C 26,7 C 19,4 C 66 % 1019,4 hPa 0,0 l/m 2 min 0 min 891 W/m 9,7 km/h (2 Bft) 95,74 %
22.07.2022 15:28 23,8 C 27,2 C 19,4 C 65 % 1019,4 hPa 0,0 l/m 2 min 0 min 816 W/m 9,7 km/h (2 Bft) 95,74 %
22.07.2022 15:30 23,8 C 27,2 C 19,4 C 66 % 1019,4 hPa 0,0 l/m 2 min 0 min 765 W/m 6,4 km/h (2 Bft) 91,49 %
22.07.2022 15:32 23,9 C 26,7 C 19,4 C 65 % 1019,4 hPa 0,0 l/m 2 min 0 min 718 W/m 6,4 km/h (2 Bft) 95,65 %
22.07.2022 15:34 23,9 C 26,7 C 19,4 C 66 % 1019,3 hPa 0,0 l/m 2 min 0 min 691 W/m 6,4 km/h (2 Bft) 95,74 %
22.07.2022 15:36 23,9 C 26,1 C 18,9 C 65 % 1019,4 hPa 0,0 l/m 2 min 0 min 479 W/m 9,7 km/h (2 Bft) 93,62 %
22.07.2022 15:38 23,9 C 25,6 C 18,9 C 64 % 1019,4 hPa 0,0 l/m 0 min 0 min 361 W/m 6,4 km/h (2 Bft) 95,74 %
22.07.2022 15:40 23,8 C 25,6 C 18,9 C 65 % 1019,4 hPa 0,0 l/m 2 min 0 min 428 W/m 6,4 km/h (2 Bft) 95,74 %
22.07.2022 15:42 23,7 C 26,1 C 18,9 C 65 % 1019,4 hPa 0,0 l/m 2 min 0 min 846 W/m 9,7 km/h (2 Bft) 93,62 %
22.07.2022 15:44 23,7 C 26,1 C 19,4 C 64 % 1019,4 hPa 0,0 l/m 2 min 0 min 914 W/m 9,7 km/h (2 Bft) 95,65 %
22.07.2022 15:46 23,8 C 27,2 C 19,4 C 64 % 1019,4 hPa 0,0 l/m 2 min 0 min 950 W/m 12,9 km/h (3 Bft) 97,87 %
22.07.2022 15:48 23,9 C 27,2 C 19,4 C 64 % 1019,4 hPa 0,0 l/m 2 min 0 min 867 W/m 9,7 km/h (2 Bft) 95,74 %
22.07.2022 15:50 23,9 C 26,7 C 18,9 C 63 % 1019,3 hPa 0,0 l/m 2 min 0 min 726 W/m 3,2 km/h (1 Bft) 95,74 %
22.07.2022 15:52 23,9 C 26,7 C 18,9 C 63 % 1019,1 hPa 0,0 l/m 2 min 0 min 620 W/m 3,2 km/h (1 Bft) 95,74 %
22.07.2022 15:54 24,1 C 26,7 C 18,9 C 64 % 1019,1 hPa 0,0 l/m 2 min 0 min 602 W/m 12,9 km/h (3 Bft) 95,65 %
22.07.2022 15:56 24,1 C 26,1 C 18,9 C 63 % 1019,1 hPa 0,0 l/m 2 min 0 min 426 W/m 6,4 km/h (2 Bft) 95,74 %
22.07.2022 15:58 24,0 C 25,6 C 18,9 C 63 % 1019,2 hPa 0,0 l/m 2 min 0 min 596 W/m 9,7 km/h (2 Bft) 97,87 %
22.07.2022 16:00 24,0 C 26,1 C 18,9 C 64 % 1019,3 hPa 0,0 l/m 2 min 0 min 539 W/m 9,7 km/h (2 Bft) 97,87 %
22.07.2022 16:02 24,0 C 26,1 C 18,9 C 64 % 1019,3 hPa 0,0 l/m 2 min 0 min 626 W/m 9,7 km/h (2 Bft) 95,74 %
22.07.2022 16:04 24,1 C 26,7 C 19,4 C 64 % 1019,3 hPa 0,0 l/m 2 min 0 min 809 W/m 6,4 km/h (2 Bft) 97,87 %
22.07.2022 16:06 24,1 C 26,7 C 19,4 C 63 % 1019,3 hPa 0,0 l/m 2 min 0 min 646 W/m 6,4 km/h (2 Bft) 95,65 %
22.07.2022 16:08 24,1 C 26,1 C 19,4 C 63 % 1019,3 hPa 0,0 l/m 2 min 0 min 616 W/m 6,4 km/h (2 Bft) 97,87 %
22.07.2022 16:10 24,1 C 25,0 C 19,4 C 63 % 1019,4 hPa 0,0 l/m 2 min 0 min 445 W/m 9,7 km/h (2 Bft) 97,87 %
22.07.2022 16:12 23,9 C 24,4 C 18,9 C 63 % 1019,4 hPa 0,0 l/m 2 min 0 min 390 W/m 6,4 km/h (2 Bft) 97,87 %
22.07.2022 16:14 23,8 C 24,4 C 18,9 C 64 % 1019,3 hPa 0,0 l/m 2 min 0 min 370 W/m 6,4 km/h (2 Bft) 97,87 %
22.07.2022 16:16 23,8 C 23,9 C 18,9 C 64 % 1019,3 hPa 0,0 l/m 0 min 0 min 331 W/m 6,4 km/h (2 Bft) 97,87 %
22.07.2022 16:18 23,8 C 24,4 C 18,9 C 64 % 1019,3 hPa 0,0 l/m 2 min 0 min 365 W/m 6,4 km/h (2 Bft) 97,30 %
22.07.2022 16:20 23,8 C 25,0 C 18,9 C 65 % 1019,2 hPa 0,0 l/m 2 min 0 min 475 W/m 3,2 km/h (1 Bft) 98,28 %
22.07.2022 16:22 23,9 C 26,7 C 18,9 C 65 % 1019,2 hPa 0,0 l/m 2 min 0 min 738 W/m 3,2 km/h (1 Bft) 100,00 %
22.07.2022 16:24 23,9 C 27,8 C 19,4 C 64 % 1019,2 hPa 0,0 l/m 2 min 0 min 900 W/m 3,2 km/h (1 Bft) 100,00 %
22.07.2022 16:26 24,1 C 28,3 C 19,4 C 64 % 1019,2 hPa 0,0 l/m 2 min 0 min 870 W/m 6,4 km/h (2 Bft) 100,00 %
22.07.2022 16:28 24,2 C 28,3 C 19,4 C 64 % 1019,3 hPa 0,0 l/m 2 min 0 min 749 W/m 6,4 km/h (2 Bft) 100,00 %
22.07.2022 16:30 24,3 C 27,8 C 19,4 C 63 % 1019,2 hPa 0,0 l/m 2 min 0 min 572 W/m 3,2 km/h (1 Bft) 100,00 %
22.07.2022 16:32 24,3 C 27,2 C 19,4 C 63 % 1019,2 hPa 0,0 l/m 2 min 0 min 430 W/m 6,4 km/h (2 Bft) 100,00 %
22.07.2022 16:34 24,4 C 27,8 C 20,0 C 64 % 1019,2 hPa 0,0 l/m 2 min 0 min 501 W/m 3,2 km/h (1 Bft) 100,00 %
22.07.2022 16:36 24,4 C 27,2 C 19,4 C 62 % 1019,1 hPa 0,0 l/m 2 min 0 min 561 W/m 9,7 km/h (2 Bft) 100,00 %
22.07.2022 16:38 24,3 C 27,8 C 20,0 C 63 % 1019,1 hPa 0,0 l/m 2 min 0 min 629 W/m 6,4 km/h (2 Bft) 100,00 %
22.07.2022 16:40 24,4 C 28,9 C 20,0 C 64 % 1019,0 hPa 0,0 l/m 2 min 0 min 757 W/m 6,4 km/h (2 Bft) 97,87 %
22.07.2022 16:42 24,5 C 28,3 C 20,0 C 64 % 1019,0 hPa 0,0 l/m 2 min 0 min 676 W/m 9,7 km/h (2 Bft) 100,00 %
22.07.2022 16:44 24,6 C 27,2 C 20,0 C 63 % 1019,0 hPa 0,0 l/m 2 min 0 min 444 W/m 12,9 km/h (3 Bft) 100,00 %
22.07.2022 16:46 24,5 C 26,7 C 20,0 C 63 % 1019,0 hPa 0,0 l/m 2 min 0 min 397 W/m 12,9 km/h (3 Bft) 100,00 %
22.07.2022 16:48 24,4 C 26,7 C 19,4 C 63 % 1018,9 hPa 0,0 l/m 2 min 0 min 473 W/m 9,7 km/h (2 Bft) 100,00 %
22.07.2022 16:50 24,5 C 27,2 C 19,4 C 64 % 1019,0 hPa 0,0 l/m 2 min 0 min 522 W/m 9,7 km/h (2 Bft) 98,31 %
22.07.2022 16:52 24,4 C 27,2 C 19,4 C 61 % 1018,9 hPa 0,0 l/m 2 min 0 min 560 W/m 12,9 km/h (3 Bft) 100,00 %
22.07.2022 16:54 24,3 C 27,2 C 19,4 C 63 % 1019,0 hPa 0,0 l/m 2 min 0 min 511 W/m 9,7 km/h (2 Bft) 100,00 %
22.07.2022 16:56 24,3 C 27,8 C 19,4 C 63 % 1019,0 hPa 0,0 l/m 2 min 0 min 526 W/m 3,2 km/h (1 Bft) 97,87 %
22.07.2022 16:58 24,4 C 28,3 C 19,4 C 63 % 1018,9 hPa 0,0 l/m 2 min 0 min 702 W/m 6,4 km/h (2 Bft) 100,00 %
22.07.2022 17:00 24,4 C 28,3 C 19,4 C 63 % 1018,9 hPa 0,0 l/m 2 min 0 min 606 W/m 6,4 km/h (2 Bft) 100,00 %
22.07.2022 17:02 24,4 C 27,8 C 19,4 C 63 % 1018,9 hPa 0,0 l/m 2 min 0 min 486 W/m 12,9 km/h (3 Bft) 97,87 %
22.07.2022 17:04 24,3 C 27,2 C 20,0 C 62 % 1019,0 hPa 0,0 l/m 2 min 0 min 584 W/m 16,1 km/h (3 Bft) 100,00 %
22.07.2022 17:06 24,3 C 27,2 C 19,4 C 63 % 1019,0 hPa 0,0 l/m 2 min 0 min 596 W/m 9,7 km/h (2 Bft) 100,00 %
22.07.2022 17:08 24,4 C 27,2 C 20,0 C 63 % 1019,0 hPa 0,0 l/m 2 min 0 min 506 W/m 9,7 km/h (2 Bft) 100,00 %
22.07.2022 17:10 24,3 C 26,1 C 19,4 C 63 % 1019,0 hPa 0,0 l/m 2 min 0 min 405 W/m 16,1 km/h (3 Bft) 100,00 %
22.07.2022 17:12 24,3 C 25,6 C 19,4 C 62 % 1019,0 hPa 0,0 l/m 2 min 0 min 344 W/m 16,1 km/h (3 Bft) 100,00 %
22.07.2022 17:14 24,3 C 25,0 C 19,4 C 63 % 1018,9 hPa 0,0 l/m 2 min 0 min 301 W/m 6,4 km/h (2 Bft) 100,00 %
22.07.2022 17:16 24,2 C 24,4 C 19,4 C 63 % 1018,9 hPa 0,0 l/m 0 min 0 min 265 W/m 3,2 km/h (1 Bft) 97,87 %
22.07.2022 17:18 24,2 C 24,4 C 19,4 C 63 % 1019,0 hPa 0,0 l/m 0 min 0 min 246 W/m 6,4 km/h (2 Bft) 95,65 %
22.07.2022 17:20 24,1 C 23,9 C 19,4 C 63 % 1018,9 hPa 0,0 l/m 0 min 0 min 245 W/m 6,4 km/h (2 Bft) 100,00 %
22.07.2022 17:22 24,1 C 23,9 C 19,4 C 64 % 1018,9 hPa 0,0 l/m 0 min 0 min 243 W/m 6,4 km/h (2 Bft) 97,83 %
22.07.2022 17:24 24,1 C 23,9 C 19,4 C 64 % 1018,9 hPa 0,0 l/m 0 min 0 min 237 W/m 6,4 km/h (2 Bft) 100,00 %
22.07.2022 17:26 24,0 C 23,9 C 19,4 C 64 % 1019,0 hPa 0,0 l/m 0 min 0 min 245 W/m 6,4 km/h (2 Bft) 100,00 %
22.07.2022 17:28 23,9 C 23,9 C 19,4 C 63 % 1018,9 hPa 0,0 l/m 0 min 0 min 276 W/m 6,4 km/h (2 Bft) 100,00 %
22.07.2022 17:30 23,9 C 23,3 C 19,4 C 64 % 1018,8 hPa 0,0 l/m 0 min 0 min 282 W/m 6,4 km/h (2 Bft) 100,00 %
22.07.2022 17:32 23,8 C 23,3 C 18,9 C 64 % 1018,8 hPa 0,0 l/m 0 min 0 min 278 W/m 6,4 km/h (2 Bft) 100,00 %
22.07.2022 17:34 23,7 C 23,9 C 18,9 C 64 % 1018,8 hPa 0,0 l/m 0 min 0 min 277 W/m 9,7 km/h (2 Bft) 100,00 %
22.07.2022 17:36 23,6 C 23,9 C 18,9 C 63 % 1018,7 hPa 0,0 l/m 0 min 0 min 271 W/m 6,4 km/h (2 Bft) 98,31 %
22.07.2022 17:38 23,6 C 23,9 C 18,9 C 65 % 1018,7 hPa 0,0 l/m 0 min 0 min 270 W/m 3,2 km/h (1 Bft) 97,14 %
22.07.2022 17:40 23,5 C 23,9 C 18,9 C 64 % 1018,7 hPa 0,0 l/m 0 min 0 min 268 W/m 9,7 km/h (2 Bft) 97,87 %
22.07.2022 17:42 23,5 C 23,3 C 18,9 C 64 % 1018,6 hPa 0,0 l/m 0 min 0 min 261 W/m 3,2 km/h (1 Bft) 97,87 %
22.07.2022 17:44 23,5 C 23,3 C 18,9 C 64 % 1018,6 hPa 0,0 l/m 0 min 0 min 262 W/m 9,7 km/h (2 Bft) 97,87 %
22.07.2022 17:46 23,5 C 23,9 C 18,9 C 65 % 1018,6 hPa 0,0 l/m 2 min 0 min 278 W/m 6,4 km/h (2 Bft) 95,65 %
22.07.2022 17:48 23,5 C 23,9 C 18,9 C 65 % 1018,6 hPa 0,0 l/m 2 min 0 min 332 W/m 9,7 km/h (2 Bft) 97,87 %
22.07.2022 17:50 23,6 C 24,4 C 19,4 C 65 % 1018,5 hPa 0,0 l/m 2 min 0 min 416 W/m 6,4 km/h (2 Bft) 95,74 %
22.07.2022 17:52 23,6 C 25,0 C 19,4 C 65 % 1018,5 hPa 0,0 l/m 2 min 0 min 423 W/m 6,4 km/h (2 Bft) 95,74 %
22.07.2022 17:54 23,7 C 25,6 C 19,4 C 65 % 1018,4 hPa 0,0 l/m 2 min 0 min 452 W/m 12,9 km/h (3 Bft) 93,62 %
22.07.2022 17:56 23,7 C 26,1 C 19,4 C 65 % 1018,4 hPa 0,0 l/m 2 min 0 min 402 W/m 6,4 km/h (2 Bft) 93,62 %
22.07.2022 17:58 23,8 C 26,1 C 20,0 C 66 % 1018,3 hPa 0,0 l/m 2 min 0 min 362 W/m 9,7 km/h (2 Bft) 91,30 %
22.07.2022 18:00 23,9 C 26,1 C 20,0 C 65 % 1018,3 hPa 0,0 l/m 2 min 0 min 310 W/m 6,4 km/h (2 Bft) 95,74 %
22.07.2022 18:02 23,9 C 26,1 C 20,0 C 64 % 1018,2 hPa 0,0 l/m 2 min 0 min 355 W/m 6,4 km/h (2 Bft) 93,62 %
22.07.2022 18:04 24,0 C 26,7 C 20,0 C 65 % 1018,2 hPa 0,0 l/m 2 min 0 min 443 W/m 9,7 km/h (2 Bft) 95,74 %
22.07.2022 18:08 24,2 C 27,8 C 20,0 C 64 % 1018,1 hPa 0,0 l/m 4 min 0 min 496 W/m 9,7 km/h (2 Bft) 94,68 %
22.07.2022 18:10 24,2 C 27,2 C 20,0 C 64 % 1018,1 hPa 0,0 l/m 2 min 0 min 454 W/m 3,2 km/h (1 Bft) 93,48 %
22.07.2022 18:12 24,3 C 27,8 C 20,0 C 64 % 1018,0 hPa 0,0 l/m 2 min 0 min 389 W/m 9,7 km/h (2 Bft) 95,74 %
22.07.2022 18:14 24,4 C 27,2 C 20,0 C 64 % 1018,1 hPa 0,0 l/m 2 min 0 min 273 W/m 6,4 km/h (2 Bft) 93,62 %
22.07.2022 18:16 24,4 C 26,7 C 20,0 C 65 % 1018,0 hPa 0,0 l/m 2 min 0 min 242 W/m 6,4 km/h (2 Bft) 93,62 %
22.07.2022 18:18 24,4 C 26,1 C 20,0 C 65 % 1018,0 hPa 0,0 l/m 2 min 0 min 238 W/m 12,9 km/h (3 Bft) 93,62 %
22.07.2022 18:20 24,3 C 25,0 C 19,4 C 63 % 1018,0 hPa 0,0 l/m 2 min 0 min 263 W/m 12,9 km/h (3 Bft) 95,74 %
22.07.2022 18:22 24,2 C 26,1 C 19,4 C 64 % 1018,0 hPa 0,0 l/m 2 min 0 min 264 W/m 6,4 km/h (2 Bft) 95,65 %
22.07.2022 18:24 24,2 C 26,1 C 19,4 C 65 % 1018,0 hPa 0,0 l/m 2 min 0 min 401 W/m 6,4 km/h (2 Bft) 97,87 %
22.07.2022 18:26 24,2 C 26,1 C 19,4 C 64 % 1018,0 hPa 0,0 l/m 2 min 0 min 350 W/m 9,7 km/h (2 Bft) 95,74 %
22.07.2022 18:28 24,2 C 26,7 C 20,0 C 63 % 1018,0 hPa 0,0 l/m 2 min 0 min 454 W/m 6,4 km/h (2 Bft) 95,74 %
22.07.2022 18:30 24,3 C 27,2 C 20,0 C 64 % 1017,9 hPa 0,0 l/m 2 min 0 min 484 W/m 12,9 km/h (3 Bft) 97,87 %
22.07.2022 18:32 24,3 C 27,8 C 20,0 C 64 % 1018,0 hPa 0,0 l/m 2 min 0 min 479 W/m 6,4 km/h (2 Bft) 98,18 %
22.07.2022 18:34 24,4 C 28,3 C 20,6 C 63 % 1018,0 hPa 0,0 l/m 2 min 0 min 505 W/m 6,4 km/h (2 Bft) 97,87 %
22.07.2022 18:36 24,5 C 28,3 C 20,0 C 62 % 1018,0 hPa 0,0 l/m 2 min 0 min 414 W/m 9,7 km/h (2 Bft) 97,87 %
22.07.2022 18:38 24,5 C 27,2 C 20,0 C 62 % 1018,0 hPa 0,0 l/m 2 min 0 min 262 W/m 6,4 km/h (2 Bft) 97,87 %
22.07.2022 18:40 24,4 C 26,1 C 20,0 C 63 % 1018,0 hPa 0,0 l/m 0 min 0 min 191 W/m 12,9 km/h (3 Bft) 97,87 %
22.07.2022 18:42 24,4 C 25,0 C 19,4 C 62 % 1018,0 hPa 0,0 l/m 0 min 0 min 171 W/m 16,1 km/h (3 Bft) 97,83 %
22.07.2022 18:44 24,3 C 24,4 C 19,4 C 63 % 1018,1 hPa 0,0 l/m 0 min 0 min 156 W/m 9,7 km/h (2 Bft) 95,74 %
22.07.2022 18:46 24,2 C 23,9 C 19,4 C 62 % 1018,1 hPa 0,0 l/m 0 min 0 min 144 W/m 6,4 km/h (2 Bft) 97,87 %
22.07.2022 18:48 24,1 C 23,3 C 18,9 C 63 % 1018,2 hPa 0,0 l/m 0 min 0 min 141 W/m 9,7 km/h (2 Bft) 97,87 %
22.07.2022 18:50 24,1 C 23,3 C 18,9 C 63 % 1018,2 hPa 0,0 l/m 0 min 0 min 140 W/m 6,4 km/h (2 Bft) 97,87 %
22.07.2022 18:52 23,9 C 23,3 C 18,9 C 64 % 1018,3 hPa 0,0 l/m 0 min 0 min 139 W/m 3,2 km/h (1 Bft) 95,74 %
22.07.2022 18:54 23,9 C 23,3 C 18,9 C 64 % 1018,3 hPa 0,0 l/m 0 min 0 min 144 W/m 3,2 km/h (1 Bft) 95,65 %
22.07.2022 18:56 23,8 C 23,3 C 18,9 C 64 % 1018,3 hPa 0,0 l/m 0 min 0 min 152 W/m 0,0 km/h (0 Bft) 97,87 %
22.07.2022 18:58 23,7 C 23,3 C 18,9 C 65 % 1018,2 hPa 0,0 l/m 0 min 0 min 157 W/m 3,2 km/h (1 Bft) 97,87 %
22.07.2022 19:00 23,6 C 23,3 C 18,9 C 64 % 1018,2 hPa 0,0 l/m 0 min 0 min 152 W/m 6,4 km/h (2 Bft) 97,87 %
22.07.2022 19:02 23,6 C 23,3 C 18,9 C 65 % 1018,2 hPa 0,0 l/m 0 min 0 min 140 W/m 3,2 km/h (1 Bft) 97,87 %
22.07.2022 19:04 23,5 C 23,3 C 18,9 C 66 % 1018,2 hPa 0,0 l/m 0 min 0 min 130 W/m 3,2 km/h (1 Bft) 97,87 %
22.07.2022 19:06 23,4 C 22,8 C 18,9 C 65 % 1018,2 hPa 0,0 l/m 0 min 0 min 120 W/m 3,2 km/h (1 Bft) 97,83 %
22.07.2022 19:08 23,4 C 22,8 C 18,9 C 66 % 1018,2 hPa 0,0 l/m 0 min 0 min 114 W/m 3,2 km/h (1 Bft) 97,87 %
22.07.2022 19:10 23,4 C 22,8 C 18,9 C 65 % 1018,2 hPa 0,0 l/m 0 min 0 min 115 W/m 3,2 km/h (1 Bft) 100,00 %
22.07.2022 19:12 23,3 C 22,8 C 18,3 C 66 % 1018,1 hPa 0,0 l/m 0 min 0 min 118 W/m 3,2 km/h (1 Bft) 100,00 %
22.07.2022 19:14 23,3 C 22,8 C 18,3 C 65 % 1018,1 hPa 0,0 l/m 0 min 0 min 120 W/m 9,7 km/h (2 Bft) 100,00 %
22.07.2022 19:16 23,2 C 22,8 C 18,3 C 66 % 1018,1 hPa 0,0 l/m 0 min 0 min 116 W/m 6,4 km/h (2 Bft) 100,00 %
22.07.2022 19:18 23,2 C 22,8 C 18,3 C 66 % 1018,1 hPa 0,0 l/m 0 min 0 min 108 W/m 6,4 km/h (2 Bft) 100,00 %
22.07.2022 19:20 23,1 C 22,8 C 18,3 C 66 % 1018,1 hPa 0,0 l/m 0 min 0 min 105 W/m 6,4 km/h (2 Bft) 100,00 %
22.07.2022 19:22 23,1 C 22,8 C 18,3 C 66 % 1018,1 hPa 0,0 l/m 0 min 0 min 104 W/m 6,4 km/h (2 Bft) 100,00 %
22.07.2022 19:24 23,0 C 22,8 C 18,3 C 66 % 1018,0 hPa 0,0 l/m 0 min 0 min 104 W/m 9,7 km/h (2 Bft) 100,00 %
22.07.2022 19:26 22,9 C 22,2 C 18,3 C 66 % 1018,1 hPa 0,0 l/m 0 min 0 min 102 W/m 9,7 km/h (2 Bft) 100,00 %
22.07.2022 19:28 22,8 C 22,2 C 18,3 C 66 % 1018,1 hPa 0,0 l/m 0 min 0 min 95 W/m 3,2 km/h (1 Bft) 100,00 %
22.07.2022 19:30 22,8 C 22,2 C 18,3 C 66 % 1018,0 hPa 0,0 l/m 0 min 0 min 85 W/m 6,4 km/h (2 Bft) 100,00 %
22.07.2022 19:32 22,8 C 22,2 C 18,3 C 66 % 1018,1 hPa 0,0 l/m 0 min 0 min 82 W/m 9,7 km/h (2 Bft) 100,00 %
22.07.2022 19:34 22,7 C 22,2 C 18,3 C 67 % 1018,2 hPa 0,0 l/m 0 min 0 min 85 W/m 6,4 km/h (2 Bft) 100,00 %
22.07.2022 19:36 22,7 C 22,2 C 18,3 C 67 % 1018,0 hPa 0,0 l/m 0 min 0 min 92 W/m 6,4 km/h (2 Bft) 100,00 %
22.07.2022 19:38 22,6 C 22,2 C 18,3 C 67 % 1018,0 hPa 0,0 l/m 0 min 0 min 92 W/m 9,7 km/h (2 Bft) 100,00 %
22.07.2022 19:40 22,6 C 22,2 C 18,3 C 67 % 1018,0 hPa 0,0 l/m 0 min 0 min 87 W/m 6,4 km/h (2 Bft) 100,00 %
22.07.2022 19:42 22,6 C 22,2 C 17,8 C 67 % 1018,0 hPa 0,0 l/m 0 min 0 min 81 W/m 6,4 km/h (2 Bft) 100,00 %
22.07.2022 19:44 22,5 C 21,7 C 17,8 C 68 % 1018,0 hPa 0,0 l/m 0 min 0 min 73 W/m 6,4 km/h (2 Bft) 100,00 %
22.07.2022 19:46 22,4 C 22,2 C 17,8 C 68 % 1018,0 hPa 0,0 l/m 0 min 0 min 65 W/m 3,2 km/h (1 Bft) 100,00 %
22.07.2022 19:48 22,4 C 21,7 C 17,8 C 68 % 1018,0 hPa 0,0 l/m 0 min 0 min 60 W/m 6,4 km/h (2 Bft) 100,00 %
22.07.2022 19:50 22,4 C 21,7 C 17,8 C 68 % 1018,1 hPa 0,0 l/m 0 min 0 min 54 W/m 6,4 km/h (2 Bft) 100,00 %
22.07.2022 19:52 22,4 C 21,7 C 17,8 C 68 % 1018,1 hPa 0,0 l/m 0 min 0 min 50 W/m 3,2 km/h (1 Bft) 97,87 %
22.07.2022 19:54 22,3 C 21,7 C 17,8 C 68 % 1018,0 hPa 0,0 l/m 0 min 0 min 46 W/m 9,7 km/h (2 Bft) 97,83 %
22.07.2022 19:56 22,3 C 21,7 C 17,8 C 68 % 1018,0 hPa 0,0 l/m 0 min 0 min 44 W/m 6,4 km/h (2 Bft) 95,74 %
22.07.2022 19:58 22,3 C 21,7 C 17,8 C 68 % 1018,1 hPa 0,0 l/m 0 min 0 min 44 W/m 3,2 km/h (1 Bft) 97,87 %
22.07.2022 20:00 22,2 C 21,1 C 17,8 C 68 % 1018,1 hPa 0,0 l/m 0 min 0 min 44 W/m 3,2 km/h (1 Bft) 97,87 %
22.07.2022 20:02 22,2 C 21,1 C 17,8 C 68 % 1018,1 hPa 0,0 l/m 0 min 0 min 43 W/m 3,2 km/h (1 Bft) 97,87 %
22.07.2022 20:04 22,2 C 21,1 C 17,8 C 69 % 1018,0 hPa 0,0 l/m 0 min 0 min 42 W/m 3,2 km/h (1 Bft) 97,87 %
22.07.2022 20:06 22,2 C 21,1 C 17,8 C 69 % 1018,0 hPa 0,0 l/m 0 min 0 min 43 W/m 3,2 km/h (1 Bft) 95,65 %
22.07.2022 20:08 22,1 C 21,1 C 17,8 C 68 % 1018,0 hPa 0,0 l/m 0 min 0 min 44 W/m 16,1 km/h (3 Bft) 97,87 %
22.07.2022 20:10 22,1 C 21,1 C 17,8 C 68 % 1017,9 hPa 0,0 l/m 0 min 0 min 43 W/m 0,0 km/h (0 Bft) 97,87 %
22.07.2022 20:12 22,1 C 21,1 C 17,2 C 69 % 1017,9 hPa 0,0 l/m 0 min 0 min 42 W/m 3,2 km/h (1 Bft) 95,74 %
22.07.2022 20:14 22,0 C 21,1 C 17,2 C 69 % 1017,8 hPa 0,0 l/m 0 min 0 min 42 W/m 0,0 km/h (0 Bft) 95,74 %
22.07.2022 20:16 21,9 C 21,1 C 17,2 C 69 % 1017,9 hPa 0,0 l/m 0 min 0 min 42 W/m 0,0 km/h (0 Bft) 95,74 %
22.07.2022 20:18 21,9 C 21,1 C 17,2 C 69 % 1017,9 hPa 0,0 l/m 0 min 0 min 43 W/m 0,0 km/h (0 Bft) 95,65 %
22.07.2022 20:20 21,9 C 21,1 C 17,2 C 69 % 1017,9 hPa 0,0 l/m 0 min 0 min 46 W/m 3,2 km/h (1 Bft) 95,74 %
22.07.2022 20:22 21,8 C 21,1 C 17,2 C 69 % 1017,9 hPa 0,0 l/m 0 min 0 min 44 W/m 9,7 km/h (2 Bft) 93,62 %
22.07.2022 20:24 21,8 C 21,1 C 17,2 C 69 % 1018,0 hPa 0,0 l/m 0 min 0 min 40 W/m 6,4 km/h (2 Bft) 97,87 %
22.07.2022 20:26 21,8 C 21,1 C 17,2 C 69 % 1017,9 hPa 0,0 l/m 0 min 0 min 38 W/m 6,4 km/h (2 Bft) 95,74 %
22.07.2022 20:28 21,7 C 21,1 C 17,2 C 69 % 1018,0 hPa 0,0 l/m 0 min 0 min 36 W/m 6,4 km/h (2 Bft) 97,87 %
22.07.2022 20:30 21,7 C 21,1 C 17,2 C 70 % 1018,0 hPa 0,0 l/m 0 min 0 min 35 W/m 3,2 km/h (1 Bft) 97,83 %
22.07.2022 20:32 21,7 C 20,6 C 17,2 C 69 % 1018,0 hPa 0,0 l/m 0 min 0 min 33 W/m 3,2 km/h (1 Bft) 97,87 %
22.07.2022 20:34 21,7 C 20,6 C 17,2 C 70 % 1018,0 hPa 0,0 l/m 0 min 0 min 32 W/m 6,4 km/h (2 Bft) 97,87 %
22.07.2022 20:36 21,6 C 20,6 C 17,2 C 69 % 1018,0 hPa 0,0 l/m 0 min 0 min 32 W/m 6,4 km/h (2 Bft) 100,00 %
22.07.2022 20:38 21,6 C 20,6 C 17,2 C 69 % 1018,0 hPa 0,0 l/m 0 min 0 min 30 W/m 6,4 km/h (2 Bft) 95,74 %
22.07.2022 20:40 21,6 C 20,6 C 17,2 C 70 % 1018,0 hPa 0,0 l/m 0 min 0 min 30 W/m 12,9 km/h (3 Bft) 97,87 %
22.07.2022 20:42 21,6 C 20,6 C 17,2 C 70 % 1018,0 hPa 0,0 l/m 0 min 0 min 30 W/m 6,4 km/h (2 Bft) 93,48 %
22.07.2022 20:44 21,6 C 20,6 C 17,2 C 70 % 1018,0 hPa 0,0 l/m 0 min 0 min 30 W/m 16,1 km/h (3 Bft) 97,87 %
22.07.2022 20:46 21,5 C 20,6 C 17,2 C 70 % 1018,0 hPa 0,0 l/m 0 min 0 min 31 W/m 9,7 km/h (2 Bft) 97,87 %
22.07.2022 20:48 21,4 C 20,6 C 17,2 C 70 % 1017,9 hPa 0,0 l/m 0 min 0 min 32 W/m 6,4 km/h (2 Bft) 97,87 %
22.07.2022 20:50 21,4 C 20,6 C 17,2 C 70 % 1018,0 hPa 0,0 l/m 0 min 0 min 33 W/m 9,7 km/h (2 Bft) 95,74 %
22.07.2022 20:52 21,4 C 20,6 C 17,2 C 70 % 1017,9 hPa 0,0 l/m 0 min 0 min 35 W/m 6,4 km/h (2 Bft) 97,87 %
22.07.2022 20:54 21,4 C 20,6 C 16,7 C 71 % 1018,0 hPa 0,0 l/m 0 min 0 min 33 W/m 6,4 km/h (2 Bft) 95,65 %
22.07.2022 20:56 21,3 C 20,6 C 16,7 C 71 % 1018,0 hPa 0,0 l/m 0 min 0 min 29 W/m 6,4 km/h (2 Bft) 100,00 %
22.07.2022 20:58 21,3 C 20,6 C 16,7 C 71 % 1018,0 hPa 0,0 l/m 0 min 0 min 24 W/m 6,4 km/h (2 Bft) 100,00 %
22.07.2022 21:00 21,3 C 20,6 C 16,7 C 71 % 1018,0 hPa 0,0 l/m 0 min 0 min 19 W/m 6,4 km/h (2 Bft) 97,87 %
22.07.2022 21:02 21,2 C 20,6 C 16,7 C 71 % 1018,0 hPa 0,0 l/m 0 min 0 min 17 W/m 6,4 km/h (2 Bft) 97,87 %
22.07.2022 21:04 21,2 C 20,6 C 16,7 C 71 % 1018,0 hPa 0,0 l/m 0 min 0 min 14 W/m 12,9 km/h (3 Bft) 97,87 %
22.07.2022 21:06 21,1 C 20,0 C 16,7 C 71 % 1017,9 hPa 0,0 l/m 0 min 0 min 12 W/m 6,4 km/h (2 Bft) 100,00 %
22.07.2022 21:08 21,1 C 20,0 C 16,7 C 71 % 1017,9 hPa 0,0 l/m 0 min 0 min 12 W/m 0,0 km/h (0 Bft) 100,00 %
22.07.2022 21:10 21,1 C 20,0 C 16,7 C 72 % 1017,9 hPa 0,0 l/m 0 min 0 min 12 W/m 6,4 km/h (2 Bft) 100,00 %
22.07.2022 21:12 21,1 C 20,0 C 16,7 C 71 % 1017,8 hPa 0,0 l/m 0 min 0 min 12 W/m 6,4 km/h (2 Bft) 97,87 %
22.07.2022 21:14 21,1 C 20,0 C 16,7 C 71 % 1017,8 hPa 0,0 l/m 0 min 0 min 12 W/m 6,4 km/h (2 Bft) 100,00 %
22.07.2022 21:16 21,0 C 20,0 C 16,7 C 72 % 1017,8 hPa 0,0 l/m 0 min 0 min 12 W/m 6,4 km/h (2 Bft) 97,83 %
22.07.2022 21:18 21,0 C 20,0 C 16,7 C 72 % 1017,8 hPa 0,0 l/m 0 min 0 min 11 W/m 6,4 km/h (2 Bft) 97,87 %
22.07.2022 21:20 21,0 C 20,0 C 16,7 C 71 % 1017,8 hPa 0,0 l/m 0 min 0 min 10 W/m 6,4 km/h (2 Bft) 97,87 %
22.07.2022 21:22 20,9 C 20,0 C 16,7 C 71 % 1017,8 hPa 0,0 l/m 0 min 0 min 8 W/m 6,4 km/h (2 Bft) 95,74 %
22.07.2022 21:24 20,9 C 20,0 C 16,7 C 71 % 1017,8 hPa 0,0 l/m 0 min 0 min 7 W/m 6,4 km/h (2 Bft) 97,87 %
22.07.2022 21:26 20,9 C 20,0 C 16,7 C 71 % 1017,8 hPa 0,0 l/m 0 min 0 min 6 W/m 3,2 km/h (1 Bft) 97,87 %
22.07.2022 21:28 20,9 C 20,0 C 16,1 C 72 % 1017,8 hPa 0,0 l/m 0 min 0 min 5 W/m 9,7 km/h (2 Bft) 97,83 %
22.07.2022 21:30 20,8 C 20,0 C 16,1 C 71 % 1017,9 hPa 0,0 l/m 0 min 0 min 5 W/m 3,2 km/h (1 Bft) 100,00 %
22.07.2022 21:32 20,8 C 20,0 C 16,1 C 71 % 1017,9 hPa 0,0 l/m 0 min 0 min 4 W/m 3,2 km/h (1 Bft) 97,30 %
22.07.2022 21:34 20,8 C 19,4 C 16,1 C 72 % 1017,9 hPa 0,0 l/m 0 min 0 min 0 W/m 3,2 km/h (1 Bft) 97,87 %
22.07.2022 21:36 20,8 C 19,4 C 16,1 C 72 % 1017,8 hPa 0,0 l/m 0 min 0 min 0 W/m 3,2 km/h (1 Bft) 94,92 %
22.07.2022 21:38 20,8 C 19,4 C 16,1 C 72 % 1017,8 hPa 0,0 l/m 0 min 0 min 0 W/m 6,4 km/h (2 Bft) 100,00 %
22.07.2022 21:40 20,8 C 19,4 C 16,1 C 72 % 1017,8 hPa 0,0 l/m 0 min 0 min 0 W/m 9,7 km/h (2 Bft) 97,87 %
22.07.2022 21:42 20,7 C 19,4 C 16,1 C 72 % 1017,9 hPa 0,0 l/m 0 min 0 min 0 W/m 0,0 km/h (0 Bft) 97,87 %
22.07.2022 21:44 20,7 C 19,4 C 16,1 C 72 % 1017,8 hPa 0,0 l/m 0 min 0 min 0 W/m 0,0 km/h (0 Bft) 97,83 %
22.07.2022 21:46 20,7 C 19,4 C 16,1 C 73 % 1017,9 hPa 0,0 l/m 0 min 0 min 0 W/m 3,2 km/h (1 Bft) 93,62 %
22.07.2022 21:48 20,7 C 19,4 C 16,1 C 73 % 1017,9 hPa 0,0 l/m 0 min 0 min 0 W/m 3,2 km/h (1 Bft) 97,87 %
22.07.2022 21:50 20,6 C 19,4 C 16,1 C 73 % 1017,9 hPa 0,0 l/m 0 min 0 min 0 W/m 3,2 km/h (1 Bft) 95,74 %
22.07.2022 21:52 20,6 C 19,4 C 16,1 C 73 % 1017,9 hPa 0,0 l/m 0 min 0 min 0 W/m 3,2 km/h (1 Bft) 95,74 %
22.07.2022 21:54 20,6 C 19,4 C 16,1 C 73 % 1017,9 hPa 0,0 l/m 0 min 0 min 0 W/m 0,0 km/h (0 Bft) 95,74 %
22.07.2022 21:56 20,6 C 19,4 C 16,1 C 73 % 1017,9 hPa 0,0 l/m 0 min 0 min 0 W/m 3,2 km/h (1 Bft) 95,65 %
22.07.2022 21:58 20,6 C 19,4 C 16,1 C 73 % 1018,0 hPa 0,0 l/m 0 min 0 min 0 W/m 3,2 km/h (1 Bft) 95,74 %
22.07.2022 22:00 20,6 C 19,4 C 16,1 C 73 % 1018,0 hPa 0,0 l/m 0 min 0 min 0 W/m 3,2 km/h (1 Bft) 95,74 %
22.07.2022 22:02 20,6 C 19,4 C 16,1 C 73 % 1017,9 hPa 0,0 l/m 0 min 0 min 0 W/m 3,2 km/h (1 Bft) 96,30 %
22.07.2022 22:04 20,6 C 19,4 C 16,1 C 74 % 1018,0 hPa 0,0 l/m 0 min 0 min 0 W/m 0,0 km/h (0 Bft) 95,74 %
22.07.2022 22:06 20,5 C 19,4 C 16,1 C 74 % 1018,0 hPa 0,0 l/m 0 min 0 min 0 W/m 6,4 km/h (2 Bft) 95,65 %
22.07.2022 22:08 20,5 C 19,4 C 16,1 C 74 % 1018,0 hPa 0,0 l/m 0 min 0 min 0 W/m 3,2 km/h (1 Bft) 95,74 %
22.07.2022 22:10 20,5 C 19,4 C 16,1 C 74 % 1018,0 hPa 0,0 l/m 0 min 0 min 0 W/m 3,2 km/h (1 Bft) 97,87 %
22.07.2022 22:12 20,5 C 19,4 C 16,1 C 74 % 1018,0 hPa 0,0 l/m 0 min 0 min 0 W/m 3,2 km/h (1 Bft) 97,87 %
22.07.2022 22:14 20,4 C 19,4 C 16,1 C 74 % 1018,0 hPa 0,0 l/m 0 min 0 min 0 W/m 3,2 km/h (1 Bft) 97,87 %
22.07.2022 22:16 20,4 C 19,4 C 16,1 C 74 % 1018,0 hPa 0,0 l/m 0 min 0 min 0 W/m 3,2 km/h (1 Bft) 95,74 %
22.07.2022 22:18 20,4 C 19,4 C 16,1 C 74 % 1018,0 hPa 0,0 l/m 0 min 0 min 0 W/m 0,0 km/h (0 Bft) 97,83 %
22.07.2022 22:20 20,4 C 19,4 C 15,6 C 74 % 1018,0 hPa 0,0 l/m 0 min 0 min 0 W/m 0,0 km/h (0 Bft) 97,87 %
22.07.2022 22:22 20,4 C 19,4 C 15,6 C 74 % 1018,0 hPa 0,0 l/m 0 min 0 min 0 W/m 0,0 km/h (0 Bft) 100,00 %
22.07.2022 22:24 20,4 C 18,9 C 15,6 C 74 % 1018,0 hPa 0,0 l/m 0 min 0 min 0 W/m 3,2 km/h (1 Bft) 100,00 %
22.07.2022 22:26 20,3 C 18,9 C 15,6 C 75 % 1018,0 hPa 0,0 l/m 0 min 0 min 0 W/m 0,0 km/h (0 Bft) 97,87 %
22.07.2022 22:28 20,3 C 18,9 C 15,6 C 75 % 1017,9 hPa 0,0 l/m 0 min 0 min 0 W/m 3,2 km/h (1 Bft) 100,00 %
22.07.2022 22:30 20,3 C 18,9 C 15,6 C 75 % 1018,0 hPa 0,0 l/m 0 min 0 min 0 W/m 0,0 km/h (0 Bft) 100,00 %
22.07.2022 22:32 20,3 C 18,9 C 15,6 C 75 % 1018,0 hPa 0,0 l/m 0 min 0 min 0 W/m 3,2 km/h (1 Bft) 100,00 %
22.07.2022 22:34 20,3 C 18,9 C 15,6 C 75 % 1018,0 hPa 0,0 l/m 0 min 0 min 0 W/m 0,0 km/h (0 Bft) 100,00 %
22.07.2022 22:36 20,3 C 18,9 C 15,6 C 75 % 1018,0 hPa 0,0 l/m 0 min 0 min 0 W/m 0,0 km/h (0 Bft) 100,00 %
22.07.2022 22:38 20,3 C 18,9 C 15,6 C 76 % 1017,9 hPa 0,0 l/m 0 min 0 min 0 W/m 0,0 km/h (0 Bft) 100,00 %
22.07.2022 22:40 20,3 C 18,9 C 15,6 C 76 % 1017,9 hPa 0,0 l/m 0 min 0 min 0 W/m 0,0 km/h (0 Bft) 100,00 %
22.07.2022 22:42 20,2 C 18,9 C 15,6 C 76 % 1017,9 hPa 0,0 l/m 0 min 0 min 0 W/m 0,0 km/h (0 Bft) 100,00 %
22.07.2022 22:44 20,2 C 18,9 C 15,6 C 76 % 1017,9 hPa 0,0 l/m 0 min 0 min 0 W/m 0,0 km/h (0 Bft) 100,00 %
22.07.2022 22:46 20,2 C 18,9 C 15,6 C 76 % 1017,9 hPa 0,0 l/m 0 min 0 min 0 W/m 3,2 km/h (1 Bft) 100,00 %
22.07.2022 22:48 20,2 C 18,9 C 15,6 C 77 % 1017,9 hPa 0,0 l/m 0 min 0 min 0 W/m 0,0 km/h (0 Bft) 100,00 %
22.07.2022 22:50 20,1 C 18,9 C 15,6 C 76 % 1017,9 hPa 0,0 l/m 0 min 0 min 0 W/m 6,4 km/h (2 Bft) 100,00 %
22.07.2022 22:52 20,1 C 18,9 C 15,6 C 76 % 1017,9 hPa 0,0 l/m 0 min 0 min 0 W/m 6,4 km/h (2 Bft) 100,00 %
22.07.2022 22:54 20,1 C 18,9 C 15,6 C 76 % 1017,9 hPa 0,0 l/m 0 min 0 min 0 W/m 0,0 km/h (0 Bft) 100,00 %
22.07.2022 22:56 20,1 C 18,9 C 15,0 C 76 % 1018,0 hPa 0,0 l/m 0 min 0 min 0 W/m 0,0 km/h (0 Bft) 97,87 %
22.07.2022 22:58 20,1 C 18,9 C 15,6 C 77 % 1018,1 hPa 0,0 l/m 0 min 0 min 0 W/m 3,2 km/h (1 Bft) 97,87 %
22.07.2022 23:00 20,1 C 18,9 C 15,6 C 77 % 1018,2 hPa 0,0 l/m 0 min 0 min 0 W/m 3,2 km/h (1 Bft) 97,87 %
22.07.2022 23:02 20,0 C 18,9 C 15,6 C 77 % 1018,2 hPa 0,0 l/m 0 min 0 min 0 W/m 3,2 km/h (1 Bft) 95,83 %
22.07.2022 23:04 20,0 C 18,9 C 15,6 C 77 % 1018,2 hPa 0,0 l/m 0 min 0 min 0 W/m 3,2 km/h (1 Bft) 95,74 %
22.07.2022 23:06 19,9 C 18,9 C 15,6 C 77 % 1018,3 hPa 0,0 l/m 0 min 0 min 0 W/m 0,0 km/h (0 Bft) 97,83 %
22.07.2022 23:08 19,9 C 18,9 C 15,6 C 77 % 1018,2 hPa 0,0 l/m 0 min 0 min 0 W/m 0,0 km/h (0 Bft) 95,74 %
22.07.2022 23:10 19,9 C 18,9 C 15,6 C 77 % 1018,2 hPa 0,0 l/m 0 min 0 min 0 W/m 3,2 km/h (1 Bft) 97,87 %
22.07.2022 23:12 19,9 C 18,9 C 15,6 C 77 % 1018,2 hPa 0,0 l/m 0 min 0 min 0 W/m 3,2 km/h (1 Bft) 97,87 %
22.07.2022 23:14 19,9 C 18,9 C 15,6 C 77 % 1018,1 hPa 0,0 l/m 0 min 0 min 0 W/m 0,0 km/h (0 Bft) 97,87 %
22.07.2022 23:16 19,9 C 18,9 C 15,6 C 78 % 1018,1 hPa 0,0 l/m 0 min 0 min 0 W/m 0,0 km/h (0 Bft) 97,83 %
22.07.2022 23:18 19,9 C 18,9 C 15,6 C 78 % 1018,1 hPa 0,0 l/m 0 min 0 min 0 W/m 6,4 km/h (2 Bft) 97,87 %
22.07.2022 23:20 19,9 C 18,9 C 15,6 C 77 % 1018,1 hPa 0,0 l/m 0 min 0 min 0 W/m 6,4 km/h (2 Bft) 95,74 %
22.07.2022 23:22 19,8 C 18,9 C 15,6 C 77 % 1018,1 hPa 0,0 l/m 0 min 0 min 0 W/m 3,2 km/h (1 Bft) 97,87 %
22.07.2022 23:24 19,8 C 18,9 C 15,6 C 77 % 1018,0 hPa 0,0 l/m 0 min 0 min 0 W/m 6,4 km/h (2 Bft) 97,87 %
22.07.2022 23:26 19,8 C 18,9 C 15,6 C 77 % 1018,2 hPa 0,0 l/m 0 min 0 min 0 W/m 6,4 km/h (2 Bft) 93,62 %
22.07.2022 23:28 19,8 C 18,9 C 15,6 C 77 % 1018,2 hPa 0,0 l/m 0 min 0 min 0 W/m 3,2 km/h (1 Bft) 97,83 %
22.07.2022 23:30 19,8 C 18,9 C 15,6 C 77 % 1018,2 hPa 0,0 l/m 0 min 0 min 0 W/m 6,4 km/h (2 Bft) 97,87 %
22.07.2022 23:32 19,8 C 18,9 C 15,6 C 78 % 1018,3 hPa 0,0 l/m 0 min 0 min 0 W/m 3,2 km/h (1 Bft) 95,74 %
22.07.2022 23:34 19,8 C 18,9 C 15,6 C 78 % 1018,4 hPa 0,0 l/m 0 min 0 min 0 W/m 0,0 km/h (0 Bft) 97,87 %
22.07.2022 23:36 19,8 C 18,9 C 15,6 C 77 % 1018,4 hPa 0,0 l/m 0 min 0 min 0 W/m 3,2 km/h (1 Bft) 95,74 %
22.07.2022 23:38 19,8 C 18,9 C 15,6 C 77 % 1018,3 hPa 0,0 l/m 0 min 0 min 0 W/m 3,2 km/h (1 Bft) 97,87 %
22.07.2022 23:40 19,8 C 18,9 C 15,6 C 78 % 1018,4 hPa 0,0 l/m 0 min 0 min 0 W/m 3,2 km/h (1 Bft) 95,65 %
22.07.2022 23:42 19,7 C 18,9 C 15,6 C 78 % 1018,3 hPa 0,0 l/m 0 min 0 min 0 W/m 9,7 km/h (2 Bft) 97,87 %
22.07.2022 23:44 19,7 C 18,9 C 15,6 C 78 % 1018,4 hPa 0,0 l/m 0 min 0 min 0 W/m 0,0 km/h (0 Bft) 97,87 %
22.07.2022 23:46 19,7 C 18,9 C 15,6 C 77 % 1018,4 hPa 0,0 l/m 0 min 0 min 0 W/m 0,0 km/h (0 Bft) 95,74 %
22.07.2022 23:48 19,7 C 18,9 C 15,6 C 77 % 1018,4 hPa 0,0 l/m 0 min 0 min 0 W/m 0,0 km/h (0 Bft) 95,74 %
22.07.2022 23:50 19,7 C 18,9 C 15,6 C 77 % 1018,5 hPa 0,0 l/m 0 min 0 min 0 W/m 0,0 km/h (0 Bft) 93,62 %
22.07.2022 23:52 19,7 C 18,9 C 15,6 C 78 % 1018,4 hPa 0,0 l/m 0 min 0 min 0 W/m 0,0 km/h (0 Bft) 97,83 %
22.07.2022 23:54 19,7 C 18,9 C 15,6 C 78 % 1018,5 hPa 0,0 l/m 0 min 0 min 0 W/m 0,0 km/h (0 Bft) 97,87 %
22.07.2022 23:56 19,7 C 18,9 C 15,6 C 78 % 1018,5 hPa 0,0 l/m 0 min 0 min 0 W/m 3,2 km/h (1 Bft) 97,87 %
22.07.2022 23:58 19,7 C 18,9 C 15,0 C 78 % 1018,6 hPa 0,0 l/m 0 min 0 min 0 W/m 0,0 km/h (0 Bft) 93,62 %
_ Min-Zeit 06:24 04:02 05:22 16:52 20:14 - - - - 00:10 10:02
Minimum _ 15,7 C 15,0 C 11,7 C 61 % 1017,8 hPa - - - - 0,0 km/h (0 Bft) 89,36 %
_ Max-Zeit 16:44 16:40 12:34 00:00 00:30 05:32 12:08 00:00 15:46 01:06 00:44
Maximum _ 24,6 C 28,9 C 21,7 C 97 % 1021,7 hPa 0,2 l/m 4 min 0 min 950 W/m 16,1 km/h
N (3 Bft)
100,00 %
Durchschnitt _ 19,3 C 19,5 C 15,5 C 82 % 1020,1 hPa #0,2 l/m #5:06 h #0 min. 277 W/m 5,5 km/h (1 Bft) 97,64 %
© 2022 W. Hausmann